Wetterdaten: Freitag, 11.11.2016
Datum Zeit Temp. Aussen Temp. o. S. +5cm Feuchte Auss BlattFeu 1 Luftdruck Regen Sonnenschein Regendauer Solar Windben Empfang
11.11.2016 00:00 5,1 C 4,4 C 3,3 C 97 % 15 lf 1004,7 hPa 0,0 l/m 0 min 0 min 0 W/m 4,2 km/h (1 Bft) 91,49 %
11.11.2016 00:02 5,1 C 4,4 C 3,3 C 97 % 15 lf 1004,7 hPa 0,0 l/m 0 min 0 min 0 W/m 2,1 km/h (1 Bft) 14,29 %
11.11.2016 00:05 5,1 C 4,4 C 3,3 C 97 % 15 lf 1004,7 hPa 0,0 l/m 0 min 0 min 0 W/m 4,2 km/h (1 Bft) 50,00 %
11.11.2016 00:08 5,0 C 5,0 C 3,3 C 97 % 15 lf 1004,7 hPa 0,0 l/m 0 min 0 min 0 W/m 4,2 km/h (1 Bft) 95,77 %
11.11.2016 00:10 5,0 C 5,0 C 3,3 C 97 % 15 lf 1004,8 hPa 0,0 l/m 0 min 0 min 0 W/m 4,2 km/h (1 Bft) 93,48 %
11.11.2016 00:12 5,0 C 5,0 C 3,3 C 97 % 15 lf 1004,8 hPa 0,0 l/m 0 min 0 min 0 W/m 6,3 km/h (2 Bft) 97,87 %
11.11.2016 00:14 5,0 C 5,0 C 3,9 C 97 % 15 lf 1004,9 hPa 0,0 l/m 0 min 0 min 0 W/m 6,3 km/h (2 Bft) 95,74 %
11.11.2016 00:16 5,0 C 5,0 C 3,9 C 97 % 15 lf 1004,9 hPa 0,0 l/m 0 min 0 min 0 W/m 6,3 km/h (2 Bft) 91,49 %
11.11.2016 00:18 5,0 C 5,0 C 3,9 C 97 % 15 lf 1004,9 hPa 0,0 l/m 0 min 0 min 0 W/m 6,3 km/h (2 Bft) 89,36 %
11.11.2016 00:20 5,0 C 5,0 C 3,9 C 97 % 15 lf 1004,9 hPa 0,0 l/m 0 min 0 min 0 W/m 6,3 km/h (2 Bft) 91,49 %
11.11.2016 00:22 5,0 C 5,0 C 3,9 C 97 % 15 lf 1004,9 hPa 0,0 l/m 0 min 0 min 0 W/m 4,2 km/h (1 Bft) 89,13 %
11.11.2016 00:24 5,0 C 5,0 C 3,9 C 97 % 15 lf 1005,0 hPa 0,0 l/m 0 min 0 min 0 W/m 6,3 km/h (2 Bft) 93,62 %
11.11.2016 00:26 5,0 C 5,0 C 3,9 C 97 % 15 lf 1005,0 hPa 0,0 l/m 0 min 0 min 0 W/m 6,3 km/h (2 Bft) 91,49 %
11.11.2016 00:28 5,1 C 5,0 C 3,9 C 97 % 15 lf 1005,0 hPa 0,0 l/m 0 min 0 min 0 W/m 6,3 km/h (2 Bft) 93,62 %
11.11.2016 00:30 5,1 C 5,0 C 3,9 C 97 % 15 lf 1005,0 hPa 0,0 l/m 0 min 0 min 0 W/m 6,3 km/h (2 Bft) 93,62 %
11.11.2016 00:32 5,1 C 5,0 C 3,9 C 97 % 15 lf 1004,9 hPa 0,0 l/m 0 min 0 min 0 W/m 4,2 km/h (1 Bft) 91,30 %
11.11.2016 00:34 5,1 C 5,6 C 3,9 C 97 % 15 lf 1004,9 hPa 0,0 l/m 0 min 0 min 0 W/m 4,2 km/h (1 Bft) 97,87 %
11.11.2016 00:36 5,1 C 5,0 C 3,9 C 97 % 15 lf 1005,0 hPa 0,0 l/m 0 min 0 min 0 W/m 0,0 km/h (0 Bft) 95,74 %
11.11.2016 00:38 5,1 C 5,0 C 3,9 C 97 % 15 lf 1005,0 hPa 0,0 l/m 0 min 0 min 0 W/m 0,0 km/h (0 Bft) 97,87 %
11.11.2016 00:40 5,1 C 5,0 C 3,9 C 97 % 15 lf 1005,1 hPa 0,0 l/m 0 min 0 min 0 W/m 0,0 km/h (0 Bft) 93,62 %
11.11.2016 00:42 5,1 C 5,0 C 3,9 C 97 % 15 lf 1005,1 hPa 0,0 l/m 0 min 0 min 0 W/m 0,0 km/h (0 Bft) 95,74 %
11.11.2016 00:44 5,1 C 5,6 C 3,9 C 97 % 15 lf 1005,0 hPa 0,0 l/m 0 min 0 min 0 W/m 6,3 km/h (2 Bft) 93,48 %
11.11.2016 00:46 5,1 C 5,6 C 3,9 C 97 % 15 lf 1005,0 hPa 0,0 l/m 0 min 0 min 0 W/m 6,3 km/h (2 Bft) 93,62 %
11.11.2016 00:48 5,1 C 5,6 C 3,9 C 97 % 15 lf 1005,0 hPa 0,0 l/m 0 min 0 min 0 W/m 6,3 km/h (2 Bft) 91,49 %
11.11.2016 00:50 5,2 C 5,6 C 3,9 C 97 % 15 lf 1005,0 hPa 0,0 l/m 0 min 0 min 0 W/m 12,6 km/h (3 Bft) 93,62 %
11.11.2016 00:52 5,2 C 5,6 C 4,4 C 97 % 15 lf 1005,0 hPa 0,0 l/m 0 min 0 min 0 W/m 10,5 km/h (2 Bft) 95,74 %
11.11.2016 00:54 5,2 C 5,6 C 4,4 C 97 % 15 lf 1005,1 hPa 0,0 l/m 0 min 0 min 0 W/m 10,5 km/h (2 Bft) 97,87 %
11.11.2016 00:56 5,3 C 5,6 C 4,4 C 97 % 15 lf 1005,1 hPa 0,0 l/m 0 min 0 min 0 W/m 12,6 km/h (3 Bft) 95,74 %
11.11.2016 00:58 5,3 C 5,6 C 4,4 C 97 % 15 lf 1005,1 hPa 0,0 l/m 0 min 0 min 0 W/m 12,6 km/h (3 Bft) 95,65 %
11.11.2016 01:00 5,3 C 5,6 C 4,4 C 97 % 15 lf 1005,0 hPa 0,0 l/m 0 min 0 min 0 W/m 8,4 km/h (2 Bft) 93,62 %
11.11.2016 01:02 5,4 C 5,6 C 4,4 C 97 % 15 lf 1005,1 hPa 0,0 l/m 0 min 0 min 0 W/m 8,4 km/h (2 Bft) 95,74 %
11.11.2016 01:04 5,4 C 5,6 C 4,4 C 97 % 15 lf 1005,1 hPa 0,0 l/m 0 min 0 min 0 W/m 6,3 km/h (2 Bft) 95,74 %
11.11.2016 01:06 5,4 C 5,6 C 4,4 C 97 % 15 lf 1005,1 hPa 0,0 l/m 0 min 0 min 0 W/m 8,4 km/h (2 Bft) 95,74 %
11.11.2016 01:08 5,4 C 5,6 C 4,4 C 97 % 15 lf 1005,2 hPa 0,0 l/m 0 min 0 min 0 W/m 10,5 km/h (2 Bft) 97,83 %
11.11.2016 01:10 5,4 C 5,6 C 4,4 C 97 % 15 lf 1005,2 hPa 0,0 l/m 0 min 0 min 0 W/m 10,5 km/h (2 Bft) 93,62 %
11.11.2016 01:12 5,4 C 5,6 C 4,4 C 97 % 15 lf 1005,2 hPa 0,0 l/m 0 min 0 min 0 W/m 6,3 km/h (2 Bft) 97,87 %
11.11.2016 01:14 5,4 C 5,6 C 4,4 C 97 % 15 lf 1005,2 hPa 0,0 l/m 0 min 0 min 0 W/m 6,3 km/h (2 Bft) 97,87 %
11.11.2016 01:16 5,4 C 5,6 C 4,4 C 97 % 15 lf 1005,2 hPa 0,0 l/m 0 min 0 min 0 W/m 4,2 km/h (1 Bft) 93,62 %
11.11.2016 01:18 5,4 C 5,6 C 4,4 C 97 % 15 lf 1005,2 hPa 0,0 l/m 0 min 0 min 0 W/m 12,6 km/h (3 Bft) 95,74 %
11.11.2016 01:20 5,4 C 5,6 C 4,4 C 97 % 15 lf 1005,2 hPa 0,0 l/m 0 min 0 min 0 W/m 8,4 km/h (2 Bft) 95,65 %
11.11.2016 01:22 5,4 C 5,6 C 4,4 C 97 % 15 lf 1005,2 hPa 0,0 l/m 0 min 0 min 0 W/m 8,4 km/h (2 Bft) 97,87 %
11.11.2016 01:24 5,4 C 5,6 C 4,4 C 97 % 15 lf 1005,2 hPa 0,0 l/m 0 min 0 min 0 W/m 12,6 km/h (3 Bft) 97,87 %
11.11.2016 01:26 5,4 C 5,6 C 4,4 C 97 % 15 lf 1005,2 hPa 0,0 l/m 0 min 0 min 0 W/m 6,3 km/h (2 Bft) 97,87 %
11.11.2016 01:28 5,4 C 5,6 C 4,4 C 97 % 15 lf 1005,3 hPa 0,0 l/m 0 min 0 min 0 W/m 10,5 km/h (2 Bft) 97,87 %
11.11.2016 01:30 5,4 C 5,6 C 4,4 C 97 % 15 lf 1005,3 hPa 0,0 l/m 0 min 0 min 0 W/m 6,3 km/h (2 Bft) 95,74 %
11.11.2016 01:32 5,4 C 5,6 C 4,4 C 97 % 15 lf 1005,3 hPa 0,0 l/m 0 min 0 min 0 W/m 10,5 km/h (2 Bft) 95,65 %
11.11.2016 01:34 5,4 C 5,6 C 4,4 C 97 % 15 lf 1005,3 hPa 0,0 l/m 0 min 0 min 0 W/m 8,4 km/h (2 Bft) 95,74 %
11.11.2016 01:36 5,4 C 5,6 C 4,4 C 97 % 15 lf 1005,3 hPa 0,0 l/m 0 min 2 min 0 W/m 6,3 km/h (2 Bft) 97,87 %
11.11.2016 01:38 5,4 C 5,6 C 4,4 C 97 % 15 lf 1005,4 hPa 0,0 l/m 0 min 0 min 0 W/m 6,3 km/h (2 Bft) 97,87 %
11.11.2016 01:40 5,4 C 5,6 C 4,4 C 97 % 15 lf 1005,3 hPa 0,0 l/m 0 min 0 min 0 W/m 8,4 km/h (2 Bft) 97,87 %
11.11.2016 01:42 5,4 C 5,6 C 4,4 C 97 % 15 lf 1005,5 hPa 0,0 l/m 0 min 0 min 0 W/m 4,2 km/h (1 Bft) 95,74 %
11.11.2016 01:44 5,4 C 5,6 C 4,4 C 97 % 15 lf 1005,4 hPa 0,0 l/m 0 min 2 min 0 W/m 12,6 km/h (3 Bft) 95,65 %
11.11.2016 01:46 5,4 C 5,6 C 4,4 C 98 % 15 lf 1005,5 hPa 0,0 l/m 0 min 2 min 0 W/m 8,4 km/h (2 Bft) 100,00 %
11.11.2016 01:48 5,4 C 5,6 C 4,4 C 98 % 15 lf 1005,5 hPa 0,0 l/m 0 min 0 min 0 W/m 4,2 km/h (1 Bft) 97,87 %
11.11.2016 01:50 5,4 C 5,6 C 4,4 C 98 % 15 lf 1005,5 hPa 0,0 l/m 0 min 0 min 0 W/m 4,2 km/h (1 Bft) 100,00 %
11.11.2016 01:52 5,4 C 5,6 C 4,4 C 98 % 15 lf 1005,5 hPa 0,0 l/m 0 min 0 min 0 W/m 8,4 km/h (2 Bft) 100,00 %
11.11.2016 01:54 5,4 C 5,6 C 4,4 C 98 % 15 lf 1005,6 hPa 0,0 l/m 0 min 0 min 0 W/m 8,4 km/h (2 Bft) 100,00 %
11.11.2016 01:56 5,4 C 5,6 C 4,4 C 98 % 15 lf 1005,6 hPa 0,0 l/m 0 min 0 min 0 W/m 6,3 km/h (2 Bft) 100,00 %
11.11.2016 01:58 5,4 C 5,6 C 4,4 C 98 % 15 lf 1005,6 hPa 0,0 l/m 0 min 0 min 0 W/m 8,4 km/h (2 Bft) 97,87 %
11.11.2016 02:00 5,4 C 5,6 C 4,4 C 98 % 15 lf 1005,6 hPa 0,0 l/m 0 min 0 min 0 W/m 6,3 km/h (2 Bft) 100,00 %
11.11.2016 02:02 5,4 C 5,6 C 4,4 C 98 % 15 lf 1005,6 hPa 0,0 l/m 0 min 0 min 0 W/m 8,4 km/h (2 Bft) 100,00 %
11.11.2016 02:04 5,4 C 5,6 C 4,4 C 98 % 15 lf 1005,6 hPa 0,0 l/m 0 min 0 min 0 W/m 6,3 km/h (2 Bft) 95,74 %
11.11.2016 02:06 5,4 C 5,6 C 3,9 C 98 % 15 lf 1005,6 hPa 0,0 l/m 0 min 0 min 0 W/m 4,2 km/h (1 Bft) 100,00 %
11.11.2016 02:08 5,4 C 5,6 C 3,9 C 98 % 15 lf 1005,6 hPa 0,0 l/m 0 min 0 min 0 W/m 6,3 km/h (2 Bft) 97,87 %
11.11.2016 02:10 5,4 C 5,6 C 3,9 C 98 % 15 lf 1005,6 hPa 0,0 l/m 0 min 0 min 0 W/m 6,3 km/h (2 Bft) 100,00 %
11.11.2016 02:12 5,4 C 5,6 C 4,4 C 98 % 15 lf 1005,6 hPa 0,0 l/m 0 min 0 min 0 W/m 4,2 km/h (1 Bft) 100,00 %
11.11.2016 02:14 5,4 C 5,6 C 4,4 C 98 % 15 lf 1005,7 hPa 0,0 l/m 0 min 0 min 0 W/m 6,3 km/h (2 Bft) 95,74 %
11.11.2016 02:16 5,4 C 5,6 C 4,4 C 98 % 15 lf 1005,7 hPa 0,0 l/m 0 min 0 min 0 W/m 6,3 km/h (2 Bft) 100,00 %
11.11.2016 02:18 5,4 C 5,6 C 4,4 C 98 % 15 lf 1005,8 hPa 0,0 l/m 0 min 0 min 0 W/m 6,3 km/h (2 Bft) 95,65 %
11.11.2016 02:20 5,4 C 5,6 C 4,4 C 98 % 15 lf 1005,8 hPa 0,0 l/m 0 min 0 min 0 W/m 4,2 km/h (1 Bft) 100,00 %
11.11.2016 02:22 5,4 C 5,6 C 4,4 C 98 % 15 lf 1005,8 hPa 0,0 l/m 0 min 0 min 0 W/m 8,4 km/h (2 Bft) 100,00 %
11.11.2016 02:24 5,4 C 5,6 C 4,4 C 98 % 15 lf 1005,8 hPa 0,0 l/m 0 min 0 min 0 W/m 6,3 km/h (2 Bft) 97,87 %
11.11.2016 02:26 5,4 C 5,6 C 4,4 C 98 % 15 lf 1005,9 hPa 0,0 l/m 0 min 0 min 0 W/m 8,4 km/h (2 Bft) 97,87 %
11.11.2016 02:28 5,4 C 5,6 C 4,4 C 98 % 15 lf 1005,9 hPa 0,0 l/m 0 min 0 min 0 W/m 10,5 km/h (2 Bft) 97,87 %
11.11.2016 02:30 5,4 C 5,6 C 4,4 C 98 % 15 lf 1005,9 hPa 0,0 l/m 0 min 0 min 0 W/m 6,3 km/h (2 Bft) 95,65 %
11.11.2016 02:32 5,4 C 5,6 C 4,4 C 98 % 15 lf 1005,9 hPa 0,0 l/m 0 min 0 min 0 W/m 6,3 km/h (2 Bft) 95,74 %
11.11.2016 02:34 5,4 C 5,6 C 4,4 C 98 % 15 lf 1005,9 hPa 0,0 l/m 0 min 0 min 0 W/m 4,2 km/h (1 Bft) 95,74 %
11.11.2016 02:36 5,4 C 5,6 C 4,4 C 98 % 15 lf 1005,9 hPa 0,0 l/m 0 min 0 min 0 W/m 6,3 km/h (2 Bft) 97,87 %
11.11.2016 02:38 5,4 C 5,6 C 4,4 C 98 % 15 lf 1006,0 hPa 0,0 l/m 0 min 0 min 0 W/m 16,7 km/h (3 Bft) 97,87 %
11.11.2016 02:40 5,4 C 5,0 C 3,9 C 98 % 15 lf 1006,0 hPa 0,0 l/m 0 min 0 min 0 W/m 18,8 km/h (3 Bft) 97,87 %
11.11.2016 02:42 5,3 C 5,0 C 3,3 C 97 % 15 lf 1006,1 hPa 0,0 l/m 0 min 0 min 0 W/m 16,7 km/h (3 Bft) 97,83 %
11.11.2016 02:44 5,3 C 4,4 C 3,3 C 97 % 15 lf 1006,1 hPa 0,0 l/m 0 min 0 min 0 W/m 16,7 km/h (3 Bft) 97,87 %
11.11.2016 02:46 5,2 C 4,4 C 3,3 C 97 % 15 lf 1006,1 hPa 0,0 l/m 0 min 0 min 0 W/m 12,6 km/h (3 Bft) 93,62 %
11.11.2016 02:48 5,1 C 4,4 C 3,3 C 98 % 15 lf 1006,1 hPa 0,0 l/m 0 min 0 min 0 W/m 16,7 km/h (3 Bft) 97,87 %
11.11.2016 02:50 5,1 C 4,4 C 3,3 C 98 % 15 lf 1006,2 hPa 0,0 l/m 0 min 0 min 0 W/m 16,7 km/h (3 Bft) 97,87 %
11.11.2016 02:52 5,0 C 4,4 C 3,3 C 97 % 15 lf 1006,3 hPa 0,0 l/m 0 min 2 min 0 W/m 10,5 km/h (2 Bft) 95,74 %
11.11.2016 02:54 4,9 C 4,4 C 3,3 C 97 % 15 lf 1006,2 hPa 0,0 l/m 0 min 2 min 0 W/m 10,5 km/h (2 Bft) 97,83 %
11.11.2016 02:56 4,9 C 4,4 C 3,3 C 97 % 15 lf 1006,4 hPa 0,0 l/m 0 min 2 min 0 W/m 12,6 km/h (3 Bft) 95,74 %
11.11.2016 02:58 4,8 C 4,4 C 3,3 C 97 % 15 lf 1006,4 hPa 0,0 l/m 0 min 2 min 0 W/m 6,3 km/h (2 Bft) 97,87 %
11.11.2016 03:00 4,8 C 4,4 C 3,3 C 97 % 15 lf 1006,4 hPa 0,0 l/m 0 min 2 min 0 W/m 8,4 km/h (2 Bft) 97,87 %
11.11.2016 03:02 4,8 C 4,4 C 3,3 C 97 % 15 lf 1006,4 hPa 0,0 l/m 0 min 2 min 0 W/m 12,6 km/h (3 Bft) 95,74 %
11.11.2016 03:04 4,7 C 4,4 C 3,3 C 97 % 15 lf 1006,5 hPa 0,0 l/m 0 min 2 min 0 W/m 14,6 km/h (3 Bft) 95,65 %
11.11.2016 03:06 4,7 C 4,4 C 3,3 C 97 % 15 lf 1006,5 hPa 0,0 l/m 0 min 0 min 0 W/m 14,6 km/h (3 Bft) 93,62 %
11.11.2016 03:08 4,6 C 4,4 C 3,3 C 97 % 15 lf 1006,5 hPa 0,0 l/m 0 min 0 min 0 W/m 12,6 km/h (3 Bft) 93,62 %
11.11.2016 03:10 4,6 C 3,9 C 3,3 C 97 % 15 lf 1006,5 hPa 0,0 l/m 0 min 0 min 0 W/m 14,6 km/h (3 Bft) 91,49 %
11.11.2016 03:12 4,6 C 3,9 C 3,3 C 97 % 15 lf 1006,5 hPa 0,0 l/m 0 min 0 min 0 W/m 14,6 km/h (3 Bft) 95,74 %
11.11.2016 03:14 4,5 C 3,9 C 3,3 C 97 % 15 lf 1006,7 hPa 0,0 l/m 0 min 0 min 0 W/m 10,5 km/h (2 Bft) 95,74 %
11.11.2016 03:16 4,4 C 3,9 C 2,8 C 97 % 15 lf 1006,7 hPa 0,0 l/m 0 min 2 min 0 W/m 16,7 km/h (3 Bft) 95,65 %
11.11.2016 03:18 4,4 C 3,9 C 2,8 C 97 % 15 lf 1006,7 hPa 0,0 l/m 0 min 0 min 0 W/m 10,5 km/h (2 Bft) 95,74 %
11.11.2016 03:20 4,4 C 3,9 C 2,8 C 97 % 15 lf 1006,7 hPa 0,0 l/m 0 min 0 min 0 W/m 10,5 km/h (2 Bft) 95,74 %
11.11.2016 03:22 4,3 C 3,9 C 2,8 C 97 % 15 lf 1006,7 hPa 0,0 l/m 0 min 0 min 0 W/m 14,6 km/h (3 Bft) 97,87 %
11.11.2016 03:24 4,3 C 3,9 C 2,8 C 97 % 15 lf 1006,7 hPa 0,0 l/m 0 min 0 min 0 W/m 12,6 km/h (3 Bft) 93,62 %
11.11.2016 03:26 4,3 C 3,9 C 2,8 C 97 % 15 lf 1006,8 hPa 0,0 l/m 0 min 0 min 0 W/m 12,6 km/h (3 Bft) 91,49 %
11.11.2016 03:28 4,3 C 3,9 C 2,8 C 97 % 15 lf 1006,8 hPa 0,0 l/m 0 min 0 min 0 W/m 14,6 km/h (3 Bft) 95,65 %
11.11.2016 03:30 4,2 C 3,9 C 2,8 C 97 % 15 lf 1006,8 hPa 0,0 l/m 0 min 0 min 0 W/m 16,7 km/h (3 Bft) 93,62 %
11.11.2016 03:32 4,2 C 3,9 C 2,8 C 97 % 15 lf 1006,8 hPa 0,0 l/m 0 min 0 min 0 W/m 16,7 km/h (3 Bft) 93,62 %
11.11.2016 03:34 4,2 C 3,9 C 2,8 C 97 % 15 lf 1006,8 hPa 0,0 l/m 0 min 0 min 0 W/m 14,6 km/h (3 Bft) 97,87 %
11.11.2016 03:36 4,2 C 3,9 C 2,8 C 97 % 15 lf 1006,7 hPa 0,0 l/m 0 min 0 min 0 W/m 12,6 km/h (3 Bft) 97,87 %
11.11.2016 03:38 4,2 C 3,9 C 2,8 C 97 % 15 lf 1006,7 hPa 0,0 l/m 0 min 0 min 0 W/m 10,5 km/h (2 Bft) 95,74 %
11.11.2016 03:40 4,1 C 3,9 C 2,8 C 97 % 15 lf 1006,8 hPa 0,0 l/m 0 min 0 min 0 W/m 6,3 km/h (2 Bft) 100,00 %
11.11.2016 03:42 4,1 C 3,9 C 2,8 C 97 % 15 lf 1006,8 hPa 0,0 l/m 0 min 0 min 0 W/m 18,8 km/h (3 Bft) 95,74 %
11.11.2016 03:44 4,1 C 3,9 C 2,8 C 97 % 15 lf 1006,9 hPa 0,0 l/m 0 min 0 min 0 W/m 14,6 km/h (3 Bft) 95,74 %
11.11.2016 03:46 4,1 C 3,9 C 2,8 C 97 % 15 lf 1006,9 hPa 0,0 l/m 0 min 2 min 0 W/m 8,4 km/h (2 Bft) 95,74 %
11.11.2016 03:48 4,1 C 3,9 C 2,8 C 97 % 15 lf 1006,9 hPa 0,0 l/m 0 min 0 min 0 W/m 12,6 km/h (3 Bft) 97,87 %
11.11.2016 03:50 4,0 C 3,9 C 2,8 C 97 % 15 lf 1006,9 hPa 0,0 l/m 0 min 0 min 0 W/m 12,6 km/h (3 Bft) 97,87 %
11.11.2016 03:52 4,0 C 3,9 C 2,8 C 97 % 15 lf 1006,9 hPa 0,0 l/m 0 min 0 min 0 W/m 10,5 km/h (2 Bft) 97,83 %
11.11.2016 03:54 4,0 C 3,9 C 2,8 C 97 % 15 lf 1006,9 hPa 0,0 l/m 0 min 0 min 0 W/m 6,3 km/h (2 Bft) 95,74 %
11.11.2016 03:56 4,0 C 3,9 C 2,8 C 97 % 15 lf 1007,0 hPa 0,0 l/m 0 min 2 min 0 W/m 12,6 km/h (3 Bft) 93,62 %
11.11.2016 03:58 3,9 C 3,9 C 2,8 C 97 % 15 lf 1007,1 hPa 0,0 l/m 0 min 2 min 0 W/m 12,6 km/h (3 Bft) 95,74 %
11.11.2016 04:00 3,9 C 3,9 C 2,8 C 97 % 15 lf 1007,0 hPa 0,0 l/m 0 min 2 min 0 W/m 8,4 km/h (2 Bft) 87,23 %
11.11.2016 04:02 3,9 C 3,9 C 2,8 C 97 % 15 lf 1007,0 hPa 0,0 l/m 0 min 2 min 0 W/m 12,6 km/h (3 Bft) 100,00 %
11.11.2016 04:04 3,9 C 3,9 C 2,8 C 97 % 15 lf 1007,2 hPa 0,0 l/m 0 min 2 min 0 W/m 12,6 km/h (3 Bft) 93,48 %
11.11.2016 04:06 3,9 C 3,9 C 2,8 C 97 % 15 lf 1007,1 hPa 0,0 l/m 0 min 2 min 0 W/m 14,6 km/h (3 Bft) 97,87 %
11.11.2016 04:08 3,9 C 3,3 C 2,8 C 97 % 15 lf 1007,1 hPa 0,0 l/m 0 min 2 min 0 W/m 8,4 km/h (2 Bft) 93,62 %
11.11.2016 04:10 3,9 C 3,3 C 2,8 C 97 % 15 lf 1007,2 hPa 0,0 l/m 0 min 2 min 0 W/m 14,6 km/h (3 Bft) 95,74 %
11.11.2016 04:12 3,9 C 3,3 C 2,8 C 97 % 15 lf 1007,2 hPa 0,0 l/m 0 min 2 min 0 W/m 14,6 km/h (3 Bft) 97,87 %
11.11.2016 04:14 3,9 C 3,3 C 2,8 C 97 % 15 lf 1007,3 hPa 0,0 l/m 0 min 2 min 0 W/m 12,6 km/h (3 Bft) 95,65 %
11.11.2016 04:16 3,8 C 3,9 C 2,8 C 97 % 15 lf 1007,3 hPa 0,0 l/m 0 min 2 min 0 W/m 10,5 km/h (2 Bft) 95,74 %
11.11.2016 04:18 3,8 C 3,3 C 2,8 C 97 % 15 lf 1007,4 hPa 0,2 l/m 0 min 2 min 0 W/m 16,7 km/h (3 Bft) 97,87 %
11.11.2016 04:20 3,8 C 3,3 C 2,8 C 97 % 15 lf 1007,4 hPa 0,0 l/m 0 min 2 min 0 W/m 12,6 km/h (3 Bft) 97,87 %
11.11.2016 04:22 3,8 C 3,3 C 2,8 C 97 % 15 lf 1007,4 hPa 0,0 l/m 0 min 2 min 0 W/m 18,8 km/h (3 Bft) 97,87 %
11.11.2016 04:24 3,8 C 3,3 C 2,8 C 97 % 15 lf 1007,4 hPa 0,0 l/m 0 min 2 min 0 W/m 12,6 km/h (3 Bft) 95,74 %
11.11.2016 04:26 3,8 C 3,9 C 2,8 C 97 % 15 lf 1007,4 hPa 0,0 l/m 0 min 2 min 0 W/m 14,6 km/h (3 Bft) 97,83 %
11.11.2016 04:28 3,8 C 3,9 C 2,8 C 97 % 15 lf 1007,5 hPa 0,0 l/m 0 min 2 min 0 W/m 10,5 km/h (2 Bft) 95,74 %
11.11.2016 04:30 3,8 C 3,9 C 2,8 C 97 % 15 lf 1007,5 hPa 0,0 l/m 0 min 2 min 0 W/m 12,6 km/h (3 Bft) 97,87 %
11.11.2016 04:32 3,8 C 3,9 C 2,8 C 97 % 15 lf 1007,5 hPa 0,0 l/m 0 min 2 min 0 W/m 16,7 km/h (3 Bft) 97,87 %
11.11.2016 04:34 3,8 C 3,9 C 2,8 C 97 % 15 lf 1007,5 hPa 0,0 l/m 0 min 2 min 0 W/m 12,6 km/h (3 Bft) 95,74 %
11.11.2016 04:36 3,8 C 3,9 C 2,8 C 97 % 15 lf 1007,5 hPa 0,0 l/m 0 min 2 min 0 W/m 10,5 km/h (2 Bft) 97,87 %
11.11.2016 04:38 3,8 C 3,9 C 2,8 C 97 % 15 lf 1007,6 hPa 0,0 l/m 0 min 2 min 0 W/m 12,6 km/h (3 Bft) 95,65 %
11.11.2016 04:40 3,8 C 3,9 C 2,8 C 97 % 15 lf 1007,6 hPa 0,2 l/m 0 min 2 min 0 W/m 12,6 km/h (3 Bft) 95,74 %
11.11.2016 04:42 3,8 C 3,9 C 2,8 C 97 % 15 lf 1007,6 hPa 0,0 l/m 0 min 2 min 0 W/m 12,6 km/h (3 Bft) 95,74 %
11.11.2016 04:44 3,8 C 3,9 C 2,8 C 97 % 15 lf 1007,7 hPa 0,0 l/m 0 min 2 min 0 W/m 10,5 km/h (2 Bft) 97,87 %
11.11.2016 04:46 3,8 C 3,9 C 2,8 C 97 % 15 lf 1007,7 hPa 0,0 l/m 0 min 2 min 0 W/m 14,6 km/h (3 Bft) 95,74 %
11.11.2016 04:48 3,8 C 3,9 C 2,8 C 97 % 15 lf 1007,7 hPa 0,0 l/m 0 min 2 min 0 W/m 10,5 km/h (2 Bft) 95,74 %
11.11.2016 04:50 3,8 C 3,9 C 2,8 C 97 % 15 lf 1007,8 hPa 0,0 l/m 0 min 2 min 0 W/m 12,6 km/h (3 Bft) 93,48 %
11.11.2016 04:52 3,8 C 3,9 C 2,8 C 97 % 15 lf 1007,8 hPa 0,0 l/m 0 min 2 min 0 W/m 6,3 km/h (2 Bft) 91,49 %
11.11.2016 04:54 3,8 C 3,9 C 2,8 C 97 % 15 lf 1007,9 hPa 0,2 l/m 0 min 2 min 0 W/m 12,6 km/h (3 Bft) 93,62 %
11.11.2016 04:56 3,8 C 3,9 C 2,8 C 97 % 15 lf 1007,9 hPa 0,0 l/m 0 min 2 min 0 W/m 12,6 km/h (3 Bft) 95,74 %
11.11.2016 04:58 3,8 C 3,9 C 2,8 C 97 % 15 lf 1007,9 hPa 0,0 l/m 0 min 2 min 0 W/m 10,5 km/h (2 Bft) 93,62 %
11.11.2016 05:00 3,8 C 3,9 C 2,8 C 97 % 15 lf 1007,9 hPa 0,0 l/m 0 min 2 min 0 W/m 14,6 km/h (3 Bft) 87,23 %
11.11.2016 05:02 3,8 C 3,9 C 2,8 C 97 % 15 lf 1007,9 hPa 0,2 l/m 0 min 2 min 0 W/m 6,3 km/h (2 Bft) 91,30 %
11.11.2016 05:04 3,8 C 3,9 C 2,8 C 97 % 15 lf 1007,9 hPa 0,0 l/m 0 min 2 min 0 W/m 6,3 km/h (2 Bft) 95,74 %
11.11.2016 05:06 3,8 C 3,9 C 2,8 C 97 % 15 lf 1008,0 hPa 0,0 l/m 0 min 2 min 0 W/m 12,6 km/h (3 Bft) 93,62 %
11.11.2016 05:08 3,8 C 3,9 C 2,8 C 97 % 15 lf 1008,1 hPa 0,0 l/m 0 min 2 min 0 W/m 10,5 km/h (2 Bft) 93,62 %
11.11.2016 05:10 3,8 C 3,9 C 2,8 C 97 % 15 lf 1008,1 hPa 0,0 l/m 0 min 2 min 0 W/m 6,3 km/h (2 Bft) 95,74 %
11.11.2016 05:12 3,8 C 3,9 C 2,8 C 97 % 15 lf 1008,1 hPa 0,0 l/m 0 min 2 min 0 W/m 6,3 km/h (2 Bft) 89,36 %
11.11.2016 05:14 3,8 C 3,9 C 2,8 C 97 % 15 lf 1008,2 hPa 0,0 l/m 0 min 2 min 0 W/m 8,4 km/h (2 Bft) 95,65 %
11.11.2016 05:16 3,8 C 3,9 C 2,8 C 97 % 15 lf 1008,2 hPa 0,2 l/m 0 min 2 min 0 W/m 10,5 km/h (2 Bft) 93,62 %
11.11.2016 05:18 3,8 C 3,9 C 2,8 C 97 % 15 lf 1008,2 hPa 0,0 l/m 0 min 2 min 0 W/m 8,4 km/h (2 Bft) 91,49 %
11.11.2016 05:20 3,8 C 3,9 C 2,8 C 97 % 15 lf 1008,2 hPa 0,0 l/m 0 min 2 min 0 W/m 6,3 km/h (2 Bft) 95,74 %
11.11.2016 05:22 3,8 C 3,9 C 2,8 C 97 % 15 lf 1008,3 hPa 0,0 l/m 0 min 2 min 0 W/m 4,2 km/h (1 Bft) 95,74 %
11.11.2016 05:24 3,8 C 3,9 C 2,8 C 97 % 15 lf 1008,4 hPa 0,0 l/m 0 min 2 min 0 W/m 6,3 km/h (2 Bft) 97,87 %
11.11.2016 05:26 3,8 C 3,9 C 2,8 C 97 % 15 lf 1008,5 hPa 0,0 l/m 0 min 2 min 0 W/m 4,2 km/h (1 Bft) 93,48 %
11.11.2016 05:28 3,8 C 3,9 C 2,8 C 97 % 15 lf 1008,4 hPa 0,0 l/m 0 min 2 min 0 W/m 4,2 km/h (1 Bft) 97,87 %
11.11.2016 05:30 3,8 C 3,9 C 2,8 C 97 % 15 lf 1008,5 hPa 0,0 l/m 0 min 2 min 0 W/m 6,3 km/h (2 Bft) 95,74 %
11.11.2016 05:32 3,8 C 3,9 C 2,8 C 97 % 15 lf 1008,6 hPa 0,0 l/m 0 min 2 min 0 W/m 6,3 km/h (2 Bft) 95,74 %
11.11.2016 05:34 3,8 C 3,9 C 2,8 C 97 % 15 lf 1008,6 hPa 0,0 l/m 0 min 2 min 0 W/m 6,3 km/h (2 Bft) 93,62 %
11.11.2016 05:36 3,8 C 3,9 C 2,8 C 97 % 15 lf 1008,7 hPa 0,0 l/m 0 min 2 min 0 W/m 6,3 km/h (2 Bft) 97,83 %
11.11.2016 05:38 3,8 C 3,9 C 2,8 C 97 % 15 lf 1008,7 hPa 0,0 l/m 0 min 2 min 0 W/m 8,4 km/h (2 Bft) 95,74 %
11.11.2016 05:40 3,8 C 3,9 C 2,8 C 97 % 15 lf 1008,7 hPa 0,0 l/m 0 min 2 min 0 W/m 6,3 km/h (2 Bft) 95,74 %
11.11.2016 05:42 3,8 C 3,9 C 2,8 C 97 % 15 lf 1008,8 hPa 0,0 l/m 0 min 2 min 0 W/m 6,3 km/h (2 Bft) 95,74 %
11.11.2016 05:44 3,8 C 3,9 C 2,8 C 97 % 15 lf 1008,8 hPa 0,0 l/m 0 min 2 min 0 W/m 8,4 km/h (2 Bft) 95,74 %
11.11.2016 05:46 3,8 C 3,9 C 2,8 C 97 % 15 lf 1008,8 hPa 0,0 l/m 0 min 2 min 0 W/m 8,4 km/h (2 Bft) 95,74 %
11.11.2016 05:48 3,8 C 3,9 C 2,8 C 97 % 15 lf 1008,8 hPa 0,0 l/m 0 min 2 min 0 W/m 10,5 km/h (2 Bft) 97,83 %
11.11.2016 05:50 3,9 C 3,9 C 2,8 C 97 % 15 lf 1008,9 hPa 0,0 l/m 0 min 2 min 0 W/m 8,4 km/h (2 Bft) 95,74 %
11.11.2016 05:52 3,9 C 3,9 C 2,8 C 97 % 15 lf 1009,0 hPa 0,0 l/m 0 min 2 min 0 W/m 10,5 km/h (2 Bft) 97,87 %
11.11.2016 05:54 3,9 C 3,9 C 2,8 C 97 % 15 lf 1009,1 hPa 0,0 l/m 0 min 2 min 0 W/m 10,5 km/h (2 Bft) 95,74 %
11.11.2016 05:56 3,9 C 3,9 C 2,8 C 97 % 15 lf 1009,1 hPa 0,0 l/m 0 min 0 min 0 W/m 8,4 km/h (2 Bft) 100,00 %
11.11.2016 05:58 3,9 C 3,9 C 2,8 C 97 % 15 lf 1009,2 hPa 0,0 l/m 0 min 0 min 0 W/m 8,4 km/h (2 Bft) 100,00 %
11.11.2016 06:00 3,9 C 3,9 C 2,8 C 97 % 15 lf 1009,2 hPa 0,0 l/m 0 min 0 min 0 W/m 12,6 km/h (3 Bft) 97,83 %
11.11.2016 06:02 3,9 C 3,9 C 2,8 C 97 % 15 lf 1009,2 hPa 0,0 l/m 0 min 2 min 0 W/m 12,6 km/h (3 Bft) 100,00 %
11.11.2016 06:06 4,0 C 3,9 C 2,8 C 98 % 15 lf 1009,3 hPa 0,0 l/m 0 min 0 min 0 W/m 16,7 km/h (3 Bft) 98,94 %
11.11.2016 06:08 4,1 C 3,9 C 2,8 C 98 % 15 lf 1009,3 hPa 0,0 l/m 0 min 0 min 0 W/m 12,6 km/h (3 Bft) 97,87 %
11.11.2016 06:10 4,1 C 3,9 C 3,3 C 98 % 15 lf 1009,3 hPa 0,0 l/m 0 min 0 min 0 W/m 10,5 km/h (2 Bft) 97,87 %
11.11.2016 06:12 4,1 C 4,4 C 3,3 C 98 % 15 lf 1009,4 hPa 0,0 l/m 0 min 0 min 0 W/m 12,6 km/h (3 Bft) 97,83 %
11.11.2016 06:14 4,1 C 4,4 C 3,3 C 98 % 15 lf 1009,4 hPa 0,0 l/m 0 min 0 min 0 W/m 14,6 km/h (3 Bft) 100,00 %
11.11.2016 06:16 4,1 C 4,4 C 3,3 C 98 % 15 lf 1009,5 hPa 0,0 l/m 0 min 0 min 0 W/m 12,6 km/h (3 Bft) 100,00 %
11.11.2016 06:18 4,2 C 4,4 C 3,3 C 98 % 15 lf 1009,4 hPa 0,0 l/m 0 min 0 min 0 W/m 12,6 km/h (3 Bft) 97,87 %
11.11.2016 06:20 4,2 C 4,4 C 3,3 C 98 % 15 lf 1009,5 hPa 0,0 l/m 0 min 0 min 0 W/m 16,7 km/h (3 Bft) 97,87 %
11.11.2016 06:22 4,2 C 4,4 C 3,3 C 98 % 15 lf 1009,5 hPa 0,0 l/m 0 min 0 min 0 W/m 18,8 km/h (3 Bft) 93,62 %
11.11.2016 06:24 4,2 C 4,4 C 3,3 C 98 % 15 lf 1009,6 hPa 0,0 l/m 0 min 0 min 0 W/m 18,8 km/h (3 Bft) 97,83 %
11.11.2016 06:26 4,2 C 4,4 C 3,3 C 98 % 15 lf 1009,6 hPa 0,0 l/m 0 min 0 min 0 W/m 18,8 km/h (3 Bft) 95,74 %
11.11.2016 06:28 4,2 C 4,4 C 3,3 C 98 % 15 lf 1009,7 hPa 0,0 l/m 0 min 0 min 0 W/m 20,9 km/h (4 Bft) 97,87 %
11.11.2016 06:30 4,2 C 4,4 C 3,3 C 98 % 15 lf 1009,8 hPa 0,0 l/m 0 min 2 min 0 W/m 25,1 km/h (4 Bft) 97,87 %
11.11.2016 06:32 4,3 C 4,4 C 3,3 C 98 % 15 lf 1009,8 hPa 0,0 l/m 0 min 2 min 0 W/m 14,6 km/h (3 Bft) 97,87 %
11.11.2016 06:34 4,3 C 4,4 C 3,3 C 98 % 15 lf 1009,9 hPa 0,0 l/m 0 min 2 min 0 W/m 20,9 km/h (4 Bft) 97,87 %
11.11.2016 06:36 4,3 C 4,4 C 3,3 C 98 % 15 lf 1009,9 hPa 0,2 l/m 0 min 2 min 0 W/m 20,9 km/h (4 Bft) 95,65 %
11.11.2016 06:38 4,3 C 4,4 C 3,3 C 98 % 15 lf 1009,9 hPa 0,0 l/m 0 min 2 min 0 W/m 18,8 km/h (3 Bft) 93,62 %
11.11.2016 06:40 4,3 C 4,4 C 3,3 C 98 % 15 lf 1010,0 hPa 0,0 l/m 0 min 2 min 0 W/m 29,3 km/h (5 Bft) 95,74 %
11.11.2016 06:42 4,3 C 4,4 C 3,3 C 98 % 15 lf 1010,0 hPa 0,0 l/m 0 min 2 min 0 W/m 23,0 km/h (4 Bft) 95,74 %
11.11.2016 06:44 4,3 C 4,4 C 3,3 C 98 % 15 lf 1010,2 hPa 0,0 l/m 0 min 2 min 0 W/m 27,2 km/h (4 Bft) 95,74 %
11.11.2016 06:46 4,3 C 4,4 C 3,3 C 98 % 15 lf 1010,2 hPa 0,0 l/m 0 min 2 min 0 W/m 20,9 km/h (4 Bft) 95,65 %
11.11.2016 06:48 4,3 C 4,4 C 3,3 C 98 % 15 lf 1010,2 hPa 0,0 l/m 0 min 2 min 0 W/m 20,9 km/h (4 Bft) 97,87 %
11.11.2016 06:50 4,2 C 4,4 C 3,3 C 98 % 15 lf 1010,2 hPa 0,0 l/m 0 min 2 min 0 W/m 25,1 km/h (4 Bft) 93,62 %
11.11.2016 06:52 4,2 C 4,4 C 2,8 C 98 % 15 lf 1010,4 hPa 0,0 l/m 0 min 2 min 0 W/m 25,1 km/h (4 Bft) 95,74 %
11.11.2016 06:54 4,2 C 4,4 C 2,8 C 98 % 15 lf 1010,4 hPa 0,0 l/m 0 min 2 min 0 W/m 20,9 km/h (4 Bft) 93,62 %
11.11.2016 06:56 4,2 C 4,4 C 2,8 C 98 % 15 lf 1010,5 hPa 0,0 l/m 0 min 2 min 0 W/m 29,3 km/h (5 Bft) 93,62 %
11.11.2016 06:58 4,2 C 3,9 C 2,8 C 98 % 15 lf 1010,5 hPa 0,0 l/m 0 min 2 min 0 W/m 29,3 km/h (5 Bft) 93,48 %
11.11.2016 07:00 4,2 C 3,9 C 2,8 C 98 % 15 lf 1010,6 hPa 0,0 l/m 0 min 2 min 0 W/m 20,9 km/h (4 Bft) 95,74 %
11.11.2016 07:02 4,2 C 3,9 C 2,8 C 98 % 15 lf 1010,7 hPa 0,0 l/m 0 min 2 min 0 W/m 18,8 km/h (3 Bft) 95,74 %
11.11.2016 07:04 4,2 C 3,9 C 2,8 C 98 % 15 lf 1010,8 hPa 0,0 l/m 0 min 2 min 0 W/m 18,8 km/h (3 Bft) 95,74 %
11.11.2016 07:06 4,2 C 3,9 C 2,8 C 98 % 15 lf 1010,9 hPa 0,0 l/m 0 min 2 min 0 W/m 27,2 km/h (4 Bft) 93,62 %
11.11.2016 07:08 4,2 C 3,9 C 2,8 C 98 % 15 lf 1011,0 hPa 0,0 l/m 0 min 2 min 0 W/m 25,1 km/h (4 Bft) 93,62 %
11.11.2016 07:10 4,2 C 3,9 C 2,8 C 98 % 15 lf 1011,0 hPa 0,0 l/m 0 min 2 min 0 W/m 18,8 km/h (3 Bft) 95,65 %
11.11.2016 07:12 4,2 C 3,9 C 2,8 C 98 % 15 lf 1011,1 hPa 0,0 l/m 0 min 0 min 0 W/m 18,8 km/h (3 Bft) 100,00 %
11.11.2016 07:14 4,1 C 3,9 C 2,8 C 98 % 15 lf 1011,2 hPa 0,0 l/m 0 min 0 min 0 W/m 27,2 km/h (4 Bft) 97,87 %
11.11.2016 07:16 4,1 C 3,9 C 2,8 C 98 % 15 lf 1011,3 hPa 0,0 l/m 0 min 0 min 0 W/m 16,7 km/h (3 Bft) 97,87 %
11.11.2016 07:18 4,1 C 3,9 C 2,8 C 98 % 15 lf 1011,3 hPa 0,0 l/m 0 min 0 min 0 W/m 20,9 km/h (4 Bft) 95,74 %
11.11.2016 07:20 4,1 C 3,9 C 2,8 C 98 % 15 lf 1011,4 hPa 0,0 l/m 0 min 0 min 0 W/m 25,1 km/h (4 Bft) 93,62 %
11.11.2016 07:22 4,1 C 3,9 C 2,8 C 98 % 15 lf 1011,5 hPa 0,0 l/m 0 min 0 min 0 W/m 14,6 km/h (3 Bft) 100,00 %
11.11.2016 07:24 4,1 C 3,9 C 2,8 C 98 % 15 lf 1011,5 hPa 0,0 l/m 0 min 0 min 0 W/m 18,8 km/h (3 Bft) 95,74 %
11.11.2016 07:26 4,1 C 3,9 C 2,8 C 98 % 15 lf 1011,6 hPa 0,0 l/m 0 min 2 min 0 W/m 23,0 km/h (4 Bft) 100,00 %
11.11.2016 07:28 4,0 C 3,9 C 2,8 C 98 % 15 lf 1011,6 hPa 0,0 l/m 0 min 2 min 0 W/m 20,9 km/h (4 Bft) 97,87 %
11.11.2016 07:30 4,0 C 3,9 C 2,8 C 98 % 15 lf 1011,6 hPa 0,0 l/m 0 min 0 min 0 W/m 16,7 km/h (3 Bft) 100,00 %
11.11.2016 07:32 3,9 C 3,9 C 2,8 C 98 % 15 lf 1011,6 hPa 0,0 l/m 0 min 0 min 0 W/m 18,8 km/h (3 Bft) 97,87 %
11.11.2016 07:34 3,9 C 3,9 C 2,8 C 98 % 15 lf 1011,7 hPa 0,0 l/m 0 min 0 min 0 W/m 23,0 km/h (4 Bft) 97,83 %
11.11.2016 07:36 3,9 C 3,9 C 2,8 C 98 % 15 lf 1011,7 hPa 0,0 l/m 0 min 0 min 0 W/m 20,9 km/h (4 Bft) 95,74 %
11.11.2016 07:38 3,9 C 3,9 C 2,8 C 98 % 15 lf 1011,8 hPa 0,0 l/m 0 min 0 min 0 W/m 20,9 km/h (4 Bft) 95,74 %
11.11.2016 07:40 3,9 C 3,9 C 2,8 C 98 % 15 lf 1011,9 hPa 0,0 l/m 0 min 0 min 0 W/m 20,9 km/h (4 Bft) 100,00 %
11.11.2016 07:42 3,8 C 3,9 C 2,8 C 98 % 15 lf 1012,0 hPa 0,0 l/m 0 min 0 min 0 W/m 25,1 km/h (4 Bft) 100,00 %
11.11.2016 07:44 3,8 C 3,9 C 2,8 C 98 % 15 lf 1012,0 hPa 0,0 l/m 0 min 2 min 0 W/m 27,2 km/h (4 Bft) 100,00 %
11.11.2016 07:46 3,8 C 3,9 C 2,8 C 98 % 15 lf 1012,1 hPa 0,0 l/m 0 min 2 min 0 W/m 20,9 km/h (4 Bft) 97,83 %
11.11.2016 07:48 3,8 C 3,9 C 2,8 C 98 % 15 lf 1012,2 hPa 0,0 l/m 0 min 2 min 0 W/m 18,8 km/h (3 Bft) 95,74 %
11.11.2016 07:50 3,8 C 3,9 C 2,8 C 98 % 15 lf 1012,2 hPa 0,0 l/m 0 min 2 min 0 W/m 25,1 km/h (4 Bft) 97,87 %
11.11.2016 07:52 3,8 C 3,9 C 2,8 C 98 % 15 lf 1012,3 hPa 0,0 l/m 0 min 0 min 0 W/m 18,8 km/h (3 Bft) 97,87 %
11.11.2016 07:54 3,8 C 3,9 C 2,8 C 98 % 15 lf 1012,4 hPa 0,0 l/m 0 min 0 min 0 W/m 16,7 km/h (3 Bft) 97,87 %
11.11.2016 07:56 3,8 C 3,9 C 2,8 C 98 % 15 lf 1012,4 hPa 0,0 l/m 0 min 2 min 0 W/m 20,9 km/h (4 Bft) 97,83 %
11.11.2016 07:58 3,7 C 3,9 C 2,8 C 98 % 15 lf 1012,5 hPa 0,0 l/m 0 min 2 min 0 W/m 25,1 km/h (4 Bft) 97,87 %
11.11.2016 08:00 3,7 C 3,9 C 2,8 C 98 % 15 lf 1012,5 hPa 0,0 l/m 0 min 0 min 0 W/m 23,0 km/h (4 Bft) 95,74 %
11.11.2016 08:02 3,7 C 3,9 C 2,8 C 98 % 15 lf 1012,6 hPa 0,0 l/m 0 min 0 min 0 W/m 18,8 km/h (3 Bft) 93,62 %
11.11.2016 08:04 3,7 C 3,9 C 2,8 C 98 % 15 lf 1012,7 hPa 0,0 l/m 0 min 0 min 0 W/m 20,9 km/h (4 Bft) 95,74 %
11.11.2016 08:06 3,7 C 3,9 C 2,8 C 98 % 15 lf 1012,7 hPa 0,0 l/m 0 min 2 min 0 W/m 18,8 km/h (3 Bft) 97,87 %
11.11.2016 08:08 3,7 C 3,9 C 2,8 C 98 % 15 lf 1012,8 hPa 0,0 l/m 0 min 2 min 0 W/m 23,0 km/h (4 Bft) 93,48 %
11.11.2016 08:10 3,7 C 3,9 C 2,8 C 98 % 15 lf 1012,9 hPa 0,0 l/m 0 min 2 min 0 W/m 23,0 km/h (4 Bft) 91,49 %
11.11.2016 08:12 3,7 C 3,9 C 2,8 C 98 % 15 lf 1013,0 hPa 0,0 l/m 0 min 0 min 0 W/m 25,1 km/h (4 Bft) 95,74 %
11.11.2016 08:14 3,7 C 3,9 C 2,8 C 98 % 15 lf 1013,0 hPa 0,0 l/m 0 min 0 min 0 W/m 25,1 km/h (4 Bft) 95,74 %
11.11.2016 08:16 3,7 C 3,9 C 2,8 C 98 % 15 lf 1013,1 hPa 0,0 l/m 0 min 0 min 0 W/m 25,1 km/h (4 Bft) 95,74 %
11.11.2016 08:18 3,7 C 3,9 C 2,8 C 98 % 15 lf 1013,1 hPa 0,0 l/m 0 min 0 min 0 W/m 25,1 km/h (4 Bft) 91,49 %
11.11.2016 08:20 3,7 C 3,9 C 2,8 C 98 % 15 lf 1013,1 hPa 0,0 l/m 0 min 2 min 0 W/m 25,1 km/h (4 Bft) 95,65 %
11.11.2016 08:22 3,7 C 3,9 C 2,8 C 98 % 15 lf 1013,2 hPa 0,0 l/m 0 min 0 min 0 W/m 20,9 km/h (4 Bft) 93,62 %
11.11.2016 08:24 3,7 C 3,9 C 2,8 C 98 % 15 lf 1013,3 hPa 0,0 l/m 0 min 0 min 0 W/m 16,7 km/h (3 Bft) 95,74 %
11.11.2016 08:26 3,7 C 3,9 C 2,8 C 98 % 15 lf 1013,3 hPa 0,0 l/m 0 min 0 min 5 W/m 18,8 km/h (3 Bft) 95,74 %
11.11.2016 08:28 3,7 C 3,9 C 2,8 C 98 % 15 lf 1013,3 hPa 0,0 l/m 0 min 0 min 5 W/m 20,9 km/h (4 Bft) 93,62 %
11.11.2016 08:30 3,7 C 3,9 C 2,8 C 98 % 15 lf 1013,4 hPa 0,0 l/m 0 min 2 min 6 W/m 29,3 km/h (5 Bft) 93,62 %
11.11.2016 08:32 3,7 C 3,9 C 2,8 C 98 % 15 lf 1013,4 hPa 0,0 l/m 0 min 2 min 7 W/m 25,1 km/h (4 Bft) 95,65 %
11.11.2016 08:34 3,7 C 3,9 C 2,8 C 98 % 15 lf 1013,5 hPa 0,0 l/m 0 min 0 min 7 W/m 18,8 km/h (3 Bft) 97,87 %
11.11.2016 08:36 3,7 C 3,9 C 2,8 C 98 % 15 lf 1013,5 hPa 0,0 l/m 0 min 2 min 9 W/m 25,1 km/h (4 Bft) 95,74 %
11.11.2016 08:38 3,7 C 3,9 C 2,8 C 98 % 15 lf 1013,6 hPa 0,0 l/m 0 min 2 min 8 W/m 27,2 km/h (4 Bft) 93,62 %
11.11.2016 08:40 3,7 C 3,9 C 2,8 C 98 % 15 lf 1013,6 hPa 0,0 l/m 0 min 2 min 7 W/m 31,4 km/h (5 Bft) 95,74 %
11.11.2016 08:42 3,7 C 3,9 C 2,8 C 98 % 15 lf 1013,8 hPa 0,0 l/m 0 min 2 min 7 W/m 27,2 km/h (4 Bft) 91,49 %
11.11.2016 08:44 3,7 C 3,9 C 2,8 C 98 % 15 lf 1013,8 hPa 0,0 l/m 0 min 0 min 7 W/m 23,0 km/h (4 Bft) 93,48 %
11.11.2016 08:46 3,7 C 3,9 C 2,8 C 98 % 15 lf 1013,9 hPa 0,0 l/m 0 min 0 min 7 W/m 25,1 km/h (4 Bft) 95,74 %
11.11.2016 08:48 3,7 C 3,9 C 2,8 C 98 % 15 lf 1014,0 hPa 0,0 l/m 0 min 0 min 7 W/m 16,7 km/h (3 Bft) 93,62 %
11.11.2016 08:50 3,7 C 3,9 C 2,8 C 98 % 15 lf 1014,0 hPa 0,0 l/m 0 min 0 min 7 W/m 20,9 km/h (4 Bft) 95,74 %
11.11.2016 08:52 3,7 C 3,9 C 2,8 C 98 % 15 lf 1014,1 hPa 0,0 l/m 0 min 0 min 7 W/m 23,0 km/h (4 Bft) 91,49 %
11.11.2016 08:54 3,7 C 3,9 C 2,8 C 98 % 15 lf 1014,0 hPa 0,0 l/m 0 min 0 min 7 W/m 20,9 km/h (4 Bft) 95,74 %
11.11.2016 08:56 3,7 C 3,9 C 2,8 C 98 % 15 lf 1014,1 hPa 0,0 l/m 0 min 0 min 7 W/m 20,9 km/h (4 Bft) 91,30 %
11.11.2016 08:58 3,7 C 3,9 C 2,8 C 98 % 15 lf 1014,1 hPa 0,0 l/m 0 min 0 min 9 W/m 16,7 km/h (3 Bft) 91,49 %
11.11.2016 09:00 3,7 C 3,9 C 2,8 C 98 % 15 lf 1014,2 hPa 0,0 l/m 0 min 0 min 11 W/m 23,0 km/h (4 Bft) 87,23 %
11.11.2016 09:02 3,7 C 3,9 C 2,8 C 98 % 15 lf 1014,3 hPa 0,0 l/m 0 min 2 min 10 W/m 23,0 km/h (4 Bft) 95,74 %
11.11.2016 09:04 3,7 C 3,9 C 2,8 C 98 % 15 lf 1014,4 hPa 0,0 l/m 0 min 2 min 10 W/m 29,3 km/h (5 Bft) 97,87 %
11.11.2016 09:06 3,7 C 3,9 C 2,8 C 98 % 15 lf 1014,4 hPa 0,0 l/m 0 min 2 min 11 W/m 27,2 km/h (4 Bft) 97,87 %
11.11.2016 09:08 3,7 C 3,9 C 2,8 C 98 % 15 lf 1014,5 hPa 0,0 l/m 0 min 0 min 11 W/m 25,1 km/h (4 Bft) 93,48 %
11.11.2016 09:10 3,7 C 3,9 C 2,8 C 98 % 15 lf 1014,6 hPa 0,0 l/m 0 min 2 min 11 W/m 20,9 km/h (4 Bft) 95,74 %
11.11.2016 09:12 3,7 C 3,3 C 2,8 C 98 % 15 lf 1014,6 hPa 0,0 l/m 0 min 2 min 11 W/m 33,5 km/h (5 Bft) 95,92 %
11.11.2016 09:14 3,6 C 3,9 C 2,8 C 98 % 15 lf 1014,7 hPa 0,0 l/m 0 min 2 min 11 W/m 27,2 km/h (4 Bft) 95,74 %
11.11.2016 09:16 3,6 C 3,9 C 2,8 C 98 % 15 lf 1014,7 hPa 0,0 l/m 0 min 0 min 11 W/m 23,0 km/h (4 Bft) 93,62 %
11.11.2016 09:18 3,6 C 3,9 C 2,8 C 98 % 15 lf 1014,8 hPa 0,0 l/m 0 min 2 min 11 W/m 18,8 km/h (3 Bft) 95,65 %
11.11.2016 09:20 3,6 C 3,9 C 2,8 C 98 % 15 lf 1014,9 hPa 0,0 l/m 0 min 0 min 11 W/m 23,0 km/h (4 Bft) 100,00 %
11.11.2016 09:22 3,6 C 3,9 C 2,8 C 98 % 15 lf 1014,9 hPa 0,0 l/m 0 min 0 min 11 W/m 23,0 km/h (4 Bft) 97,87 %
11.11.2016 09:24 3,6 C 3,9 C 2,8 C 98 % 15 lf 1014,8 hPa 0,0 l/m 0 min 0 min 12 W/m 23,0 km/h (4 Bft) 93,62 %
11.11.2016 09:26 3,6 C 3,9 C 2,8 C 98 % 15 lf 1014,9 hPa 0,0 l/m 0 min 2 min 13 W/m 20,9 km/h (4 Bft) 95,74 %
11.11.2016 09:28 3,6 C 3,9 C 2,8 C 98 % 15 lf 1014,9 hPa 0,0 l/m 0 min 2 min 14 W/m 33,5 km/h (5 Bft) 97,87 %
11.11.2016 09:30 3,6 C 3,9 C 2,8 C 98 % 15 lf 1014,9 hPa 0,0 l/m 0 min 2 min 15 W/m 20,9 km/h (4 Bft) 95,65 %
11.11.2016 09:32 3,6 C 3,9 C 2,8 C 98 % 15 lf 1015,0 hPa 0,0 l/m 0 min 0 min 17 W/m 20,9 km/h (4 Bft) 93,62 %
11.11.2016 09:34 3,6 C 3,9 C 2,8 C 98 % 15 lf 1015,0 hPa 0,0 l/m 0 min 0 min 18 W/m 18,8 km/h (3 Bft) 91,49 %
11.11.2016 09:36 3,6 C 3,9 C 2,8 C 98 % 15 lf 1015,0 hPa 0,0 l/m 0 min 0 min 17 W/m 14,6 km/h (3 Bft) 97,87 %
11.11.2016 09:38 3,6 C 3,9 C 2,8 C 98 % 15 lf 1015,1 hPa 0,0 l/m 0 min 0 min 18 W/m 25,1 km/h (4 Bft) 95,74 %
11.11.2016 09:40 3,6 C 3,9 C 2,8 C 98 % 15 lf 1015,1 hPa 0,0 l/m 0 min 0 min 19 W/m 18,8 km/h (3 Bft) 97,87 %
11.11.2016 09:42 3,6 C 3,9 C 2,8 C 98 % 15 lf 1015,1 hPa 0,0 l/m 0 min 0 min 19 W/m 23,0 km/h (4 Bft) 97,83 %
11.11.2016 09:44 3,6 C 3,9 C 2,8 C 98 % 14 lf 1015,1 hPa 0,0 l/m 0 min 0 min 17 W/m 20,9 km/h (4 Bft) 95,74 %
11.11.2016 09:46 3,6 C 3,9 C 2,8 C 98 % 14 lf 1015,2 hPa 0,0 l/m 0 min 0 min 14 W/m 23,0 km/h (4 Bft) 97,87 %
11.11.2016 09:48 3,6 C 3,9 C 2,8 C 98 % 13 lf 1015,2 hPa 0,0 l/m 0 min 0 min 13 W/m 18,8 km/h (3 Bft) 95,74 %
11.11.2016 09:50 3,6 C 3,9 C 2,8 C 98 % 13 lf 1015,3 hPa 0,0 l/m 0 min 0 min 16 W/m 20,9 km/h (4 Bft) 97,87 %
11.11.2016 09:52 3,7 C 3,9 C 2,8 C 98 % 13 lf 1015,3 hPa 0,0 l/m 0 min 0 min 17 W/m 14,6 km/h (3 Bft) 95,65 %
11.11.2016 09:54 3,6 C 3,9 C 2,8 C 98 % 13 lf 1015,3 hPa 0,0 l/m 0 min 0 min 19 W/m 20,9 km/h (4 Bft) 97,87 %
11.11.2016 09:56 3,7 C 3,9 C 2,8 C 98 % 12 lf 1015,4 hPa 0,0 l/m 0 min 0 min 19 W/m 16,7 km/h (3 Bft) 95,74 %
11.11.2016 09:58 3,6 C 3,9 C 2,8 C 98 % 12 lf 1015,4 hPa 0,0 l/m 0 min 0 min 18 W/m 23,0 km/h (4 Bft) 95,74 %
11.11.2016 10:00 3,7 C 3,9 C 2,8 C 98 % 12 lf 1015,5 hPa 0,0 l/m 0 min 0 min 18 W/m 23,0 km/h (4 Bft) 97,87 %
11.11.2016 10:02 3,6 C 3,9 C 2,8 C 98 % 12 lf 1015,4 hPa 0,0 l/m 0 min 0 min 19 W/m 14,6 km/h (3 Bft) 97,87 %
11.11.2016 10:04 3,6 C 3,9 C 2,8 C 98 % 11 lf 1015,5 hPa 0,0 l/m 0 min 0 min 18 W/m 18,8 km/h (3 Bft) 93,48 %
11.11.2016 10:06 3,7 C 3,9 C 2,8 C 98 % 11 lf 1015,5 hPa 0,0 l/m 0 min 0 min 19 W/m 12,6 km/h (3 Bft) 95,74 %
11.11.2016 10:08 3,7 C 3,9 C 2,8 C 98 % 11 lf 1015,6 hPa 0,0 l/m 0 min 0 min 19 W/m 18,8 km/h (3 Bft) 95,74 %
11.11.2016 10:10 3,7 C 3,9 C 2,8 C 98 % 11 lf 1015,6 hPa 0,0 l/m 0 min 0 min 19 W/m 20,9 km/h (4 Bft) 95,74 %
11.11.2016 10:12 3,7 C 3,9 C 2,8 C 98 % 10 lf 1015,7 hPa 0,0 l/m 0 min 2 min 22 W/m 27,2 km/h (4 Bft) 97,87 %
11.11.2016 10:14 3,7 C 3,9 C 2,8 C 98 % 10 lf 1015,9 hPa 0,0 l/m 0 min 0 min 25 W/m 18,8 km/h (3 Bft) 95,74 %
11.11.2016 10:16 3,7 C 3,9 C 2,8 C 98 % 10 lf 1015,9 hPa 0,0 l/m 0 min 0 min 22 W/m 16,7 km/h (3 Bft) 100,00 %
11.11.2016 10:18 3,7 C 3,9 C 2,8 C 98 % 10 lf 1016,1 hPa 0,0 l/m 0 min 0 min 21 W/m 16,7 km/h (3 Bft) 95,74 %
11.11.2016 10:20 3,7 C 3,9 C 2,8 C 98 % 9 lf 1016,1 hPa 0,0 l/m 0 min 0 min 19 W/m 20,9 km/h (4 Bft) 95,74 %
11.11.2016 10:22 3,7 C 3,9 C 2,8 C 98 % 9 lf 1016,1 hPa 0,0 l/m 0 min 0 min 21 W/m 18,8 km/h (3 Bft) 91,49 %
11.11.2016 10:24 3,7 C 3,9 C 2,8 C 98 % 9 lf 1016,2 hPa 0,0 l/m 0 min 0 min 22 W/m 23,0 km/h (4 Bft) 97,87 %
11.11.2016 10:26 3,7 C 3,9 C 2,8 C 98 % 9 lf 1016,2 hPa 0,0 l/m 0 min 0 min 22 W/m 20,9 km/h (4 Bft) 91,49 %
11.11.2016 10:28 3,7 C 3,9 C 2,8 C 98 % 8 lf 1016,2 hPa 0,0 l/m 0 min 2 min 22 W/m 25,1 km/h (4 Bft) 91,30 %
11.11.2016 10:30 3,6 C 3,9 C 2,8 C 98 % 7 lf 1016,3 hPa 0,0 l/m 0 min 0 min 22 W/m 23,0 km/h (4 Bft) 95,74 %
11.11.2016 10:32 3,6 C 3,9 C 2,8 C 97 % 7 lf 1016,2 hPa 0,0 l/m 0 min 0 min 21 W/m 20,9 km/h (4 Bft) 91,49 %
11.11.2016 10:34 3,6 C 3,9 C 2,8 C 97 % 6 lf 1016,3 hPa 0,0 l/m 0 min 0 min 23 W/m 20,9 km/h (4 Bft) 95,74 %
11.11.2016 10:36 3,6 C 3,9 C 2,8 C 97 % 5 lf 1016,3 hPa 0,0 l/m 0 min 0 min 25 W/m 23,0 km/h (4 Bft) 91,49 %
11.11.2016 10:38 3,6 C 3,9 C 2,8 C 97 % 4 lf 1016,3 hPa 0,0 l/m 0 min 0 min 22 W/m 14,6 km/h (3 Bft) 93,62 %
11.11.2016 10:40 3,6 C 3,9 C 2,8 C 97 % 4 lf 1016,4 hPa 0,0 l/m 0 min 0 min 23 W/m 18,8 km/h (3 Bft) 95,65 %
11.11.2016 10:42 3,6 C 3,9 C 2,8 C 97 % 4 lf 1016,4 hPa 0,0 l/m 0 min 0 min 22 W/m 20,9 km/h (4 Bft) 93,62 %
11.11.2016 10:44 3,6 C 3,9 C 2,8 C 97 % 4 lf 1016,4 hPa 0,0 l/m 0 min 0 min 22 W/m 20,9 km/h (4 Bft) 95,74 %
11.11.2016 10:46 3,6 C 3,9 C 2,8 C 97 % 3 lf 1016,5 hPa 0,0 l/m 0 min 0 min 23 W/m 16,7 km/h (3 Bft) 95,74 %
11.11.2016 10:48 3,6 C 3,9 C 2,8 C 97 % 3 lf 1016,6 hPa 0,0 l/m 0 min 0 min 25 W/m 14,6 km/h (3 Bft) 93,62 %
11.11.2016 10:50 3,6 C 3,9 C 2,8 C 97 % 3 lf 1016,5 hPa 0,0 l/m 0 min 0 min 25 W/m 14,6 km/h (3 Bft) 97,87 %
11.11.2016 10:52 3,6 C 3,9 C 2,8 C 97 % 3 lf 1016,6 hPa 0,0 l/m 0 min 0 min 25 W/m 14,6 km/h (3 Bft) 97,83 %
11.11.2016 10:54 3,6 C 3,9 C 2,8 C 97 % 3 lf 1016,7 hPa 0,0 l/m 0 min 0 min 26 W/m 18,8 km/h (3 Bft) 97,87 %
11.11.2016 10:56 3,6 C 3,9 C 2,8 C 97 % 2 lf 1016,7 hPa 0,0 l/m 0 min 0 min 28 W/m 14,6 km/h (3 Bft) 97,87 %
11.11.2016 10:58 3,6 C 3,9 C 2,8 C 97 % 2 lf 1016,7 hPa 0,0 l/m 0 min 0 min 30 W/m 16,7 km/h (3 Bft) 95,74 %
11.11.2016 11:00 3,6 C 3,9 C 2,8 C 97 % 1 lf 1016,8 hPa 0,0 l/m 0 min 0 min 26 W/m 16,7 km/h (3 Bft) 95,74 %
11.11.2016 11:02 3,6 C 3,9 C 2,8 C 97 % 1 lf 1016,9 hPa 0,0 l/m 0 min 0 min 28 W/m 20,9 km/h (4 Bft) 97,83 %
11.11.2016 11:04 3,6 C 3,9 C 2,8 C 97 % 1 lf 1016,9 hPa 0,0 l/m 0 min 0 min 29 W/m 14,6 km/h (3 Bft) 93,48 %
11.11.2016 11:06 3,6 C 3,9 C 2,8 C 97 % 1 lf 1017,0 hPa 0,0 l/m 0 min 0 min 28 W/m 16,7 km/h (3 Bft) 97,87 %
11.11.2016 11:08 3,6 C 3,9 C 2,8 C 97 % 0 lf 1016,9 hPa 0,0 l/m 0 min 0 min 26 W/m 18,8 km/h (3 Bft) 97,87 %
11.11.2016 11:10 3,6 C 3,9 C 2,8 C 97 % 0 lf 1017,0 hPa 0,0 l/m 0 min 0 min 23 W/m 23,0 km/h (4 Bft) 100,00 %
11.11.2016 11:12 3,6 C 3,9 C 2,8 C 97 % 0 lf 1017,0 hPa 0,0 l/m 0 min 0 min 19 W/m 14,6 km/h (3 Bft) 97,87 %
11.11.2016 11:14 3,6 C 3,9 C 2,8 C 97 % 0 lf 1017,1 hPa 0,0 l/m 0 min 0 min 16 W/m 20,9 km/h (4 Bft) 95,65 %
11.11.2016 11:16 3,6 C 3,9 C 2,8 C 97 % 0 lf 1017,1 hPa 0,0 l/m 0 min 0 min 16 W/m 12,6 km/h (3 Bft) 95,74 %
11.11.2016 11:18 3,6 C 3,9 C 2,8 C 97 % 0 lf 1017,1 hPa 0,0 l/m 0 min 0 min 18 W/m 16,7 km/h (3 Bft) 100,00 %
11.11.2016 11:20 3,6 C 3,9 C 2,8 C 97 % 0 lf 1017,1 hPa 0,0 l/m 0 min 0 min 21 W/m 23,0 km/h (4 Bft) 100,00 %
11.11.2016 11:22 3,6 C 3,9 C 2,8 C 97 % 0 lf 1017,2 hPa 0,0 l/m 0 min 0 min 23 W/m 29,3 km/h (5 Bft) 97,87 %
11.11.2016 11:24 3,6 C 3,9 C 2,8 C 97 % 0 lf 1017,2 hPa 0,0 l/m 0 min 0 min 33 W/m 14,6 km/h (3 Bft) 97,87 %
11.11.2016 11:26 3,6 C 3,9 C 2,8 C 97 % 0 lf 1017,2 hPa 0,0 l/m 0 min 0 min 44 W/m 20,9 km/h (4 Bft) 97,83 %
11.11.2016 11:28 3,6 C 3,9 C 2,8 C 97 % 0 lf 1017,3 hPa 0,0 l/m 0 min 0 min 48 W/m 25,1 km/h (4 Bft) 97,87 %
11.11.2016 11:30 3,6 C 3,9 C 2,8 C 97 % 0 lf 1017,3 hPa 0,0 l/m 0 min 0 min 49 W/m 23,0 km/h (4 Bft) 100,00 %
11.11.2016 11:32 3,5 C 3,9 C 2,8 C 97 % 0 lf 1017,4 hPa 0,0 l/m 0 min 0 min 47 W/m 27,2 km/h (4 Bft) 97,87 %
11.11.2016 11:34 3,5 C 3,9 C 2,8 C 97 % 0 lf 1017,3 hPa 0,0 l/m 0 min 0 min 44 W/m 20,9 km/h (4 Bft) 100,00 %
11.11.2016 11:36 3,6 C 3,9 C 2,8 C 97 % 0 lf 1017,4 hPa 0,0 l/m 0 min 0 min 40 W/m 20,9 km/h (4 Bft) 100,00 %
11.11.2016 11:38 3,6 C 3,9 C 2,8 C 97 % 0 lf 1017,4 hPa 0,0 l/m 0 min 0 min 36 W/m 20,9 km/h (4 Bft) 97,83 %
11.11.2016 11:40 3,6 C 3,9 C 2,8 C 97 % 0 lf 1017,4 hPa 0,0 l/m 0 min 0 min 39 W/m 10,5 km/h (2 Bft) 97,87 %
11.11.2016 11:42 3,6 C 3,9 C 2,8 C 97 % 0 lf 1017,5 hPa 0,0 l/m 0 min 0 min 42 W/m 10,5 km/h (2 Bft) 97,87 %
11.11.2016 11:44 3,6 C 3,9 C 2,8 C 97 % 0 lf 1017,5 hPa 0,0 l/m 0 min 0 min 44 W/m 18,8 km/h (3 Bft) 97,87 %
11.11.2016 11:46 3,6 C 3,9 C 2,8 C 97 % 0 lf 1017,5 hPa 0,0 l/m 0 min 0 min 42 W/m 18,8 km/h (3 Bft) 97,87 %
11.11.2016 11:48 3,6 C 3,9 C 2,8 C 97 % 0 lf 1017,5 hPa 0,0 l/m 0 min 0 min 42 W/m 16,7 km/h (3 Bft) 100,00 %
11.11.2016 11:50 3,6 C 3,9 C 2,8 C 97 % 0 lf 1017,6 hPa 0,0 l/m 0 min 0 min 42 W/m 18,8 km/h (3 Bft) 100,00 %
11.11.2016 11:52 3,6 C 3,9 C 2,8 C 96 % 0 lf 1017,6 hPa 0,0 l/m 0 min 0 min 41 W/m 18,8 km/h (3 Bft) 100,00 %
11.11.2016 11:54 3,6 C 3,9 C 2,8 C 96 % 0 lf 1017,6 hPa 0,0 l/m 0 min 0 min 40 W/m 18,8 km/h (3 Bft) 100,00 %
11.11.2016 11:56 3,6 C 3,9 C 2,8 C 96 % 0 lf 1017,6 hPa 0,0 l/m 0 min 0 min 40 W/m 12,6 km/h (3 Bft) 97,87 %
11.11.2016 11:58 3,6 C 3,9 C 2,8 C 96 % 0 lf 1017,7 hPa 0,0 l/m 0 min 0 min 40 W/m 16,7 km/h (3 Bft) 97,87 %
11.11.2016 12:00 3,6 C 3,9 C 2,8 C 96 % 0 lf 1017,7 hPa 0,0 l/m 0 min 0 min 39 W/m 20,9 km/h (4 Bft) 100,00 %
11.11.2016 12:02 3,6 C 3,9 C 2,8 C 96 % 0 lf 1017,8 hPa 0,0 l/m 0 min 0 min 44 W/m 20,9 km/h (4 Bft) 95,65 %
11.11.2016 12:06 3,6 C 3,9 C 2,8 C 96 % 0 lf 1017,8 hPa 0,0 l/m 0 min 0 min 51 W/m 16,7 km/h (3 Bft) 97,87 %
11.11.2016 12:08 3,6 C 3,9 C 2,8 C 96 % 0 lf 1017,8 hPa 0,0 l/m 0 min 0 min 49 W/m 14,6 km/h (3 Bft) 97,87 %
11.11.2016 12:10 3,6 C 3,9 C 2,8 C 96 % 0 lf 1017,9 hPa 0,0 l/m 0 min 0 min 48 W/m 20,9 km/h (4 Bft) 97,87 %
11.11.2016 12:12 3,6 C 3,9 C 2,8 C 96 % 0 lf 1017,9 hPa 0,0 l/m 0 min 0 min 47 W/m 27,2 km/h (4 Bft) 97,87 %
11.11.2016 12:14 3,7 C 3,9 C 2,8 C 96 % 0 lf 1017,9 hPa 0,0 l/m 0 min 0 min 47 W/m 18,8 km/h (3 Bft) 95,65 %
11.11.2016 12:16 3,7 C 3,9 C 2,8 C 96 % 0 lf 1017,9 hPa 0,0 l/m 0 min 0 min 48 W/m 23,0 km/h (4 Bft) 97,87 %
11.11.2016 12:18 3,7 C 3,9 C 2,8 C 96 % 0 lf 1017,9 hPa 0,0 l/m 0 min 0 min 46 W/m 16,7 km/h (3 Bft) 95,74 %
11.11.2016 12:20 3,6 C 3,9 C 2,8 C 96 % 0 lf 1017,9 hPa 0,0 l/m 0 min 0 min 46 W/m 14,6 km/h (3 Bft) 95,74 %
11.11.2016 12:22 3,7 C 3,9 C 2,8 C 96 % 0 lf 1017,9 hPa 0,0 l/m 0 min 0 min 44 W/m 23,0 km/h (4 Bft) 97,87 %
11.11.2016 12:24 3,6 C 3,9 C 2,8 C 96 % 0 lf 1017,9 hPa 0,0 l/m 0 min 0 min 41 W/m 23,0 km/h (4 Bft) 93,62 %
11.11.2016 12:26 3,6 C 3,9 C 2,8 C 96 % 0 lf 1017,9 hPa 0,0 l/m 0 min 0 min 40 W/m 25,1 km/h (4 Bft) 95,65 %
11.11.2016 12:28 3,6 C 3,9 C 2,8 C 96 % 0 lf 1017,9 hPa 0,0 l/m 0 min 0 min 40 W/m 16,7 km/h (3 Bft) 97,87 %
11.11.2016 12:30 3,6 C 3,9 C 2,8 C 96 % 0 lf 1018,0 hPa 0,0 l/m 0 min 0 min 36 W/m 14,6 km/h (3 Bft) 91,49 %
11.11.2016 12:32 3,6 C 3,9 C 2,8 C 96 % 0 lf 1018,0 hPa 0,0 l/m 0 min 0 min 35 W/m 16,7 km/h (3 Bft) 89,36 %
11.11.2016 12:34 3,6 C 3,9 C 2,8 C 96 % 0 lf 1018,1 hPa 0,0 l/m 0 min 0 min 35 W/m 18,8 km/h (3 Bft) 93,62 %
11.11.2016 12:36 3,6 C 3,9 C 2,8 C 96 % 0 lf 1018,1 hPa 0,0 l/m 0 min 0 min 36 W/m 16,7 km/h (3 Bft) 91,30 %
11.11.2016 12:38 3,6 C 3,9 C 2,8 C 96 % 0 lf 1018,1 hPa 0,0 l/m 0 min 0 min 40 W/m 25,1 km/h (4 Bft) 95,74 %
11.11.2016 12:40 3,6 C 3,3 C 2,8 C 95 % 0 lf 1018,2 hPa 0,0 l/m 0 min 0 min 42 W/m 25,1 km/h (4 Bft) 93,62 %
11.11.2016 12:42 3,5 C 3,3 C 2,8 C 95 % 0 lf 1018,2 hPa 0,0 l/m 0 min 0 min 43 W/m 20,9 km/h (4 Bft) 91,49 %
11.11.2016 12:44 3,5 C 3,3 C 2,8 C 95 % 0 lf 1018,2 hPa 0,0 l/m 0 min 0 min 42 W/m 25,1 km/h (4 Bft) 95,74 %
11.11.2016 12:46 3,5 C 3,3 C 2,8 C 95 % 0 lf 1018,3 hPa 0,0 l/m 0 min 0 min 44 W/m 25,1 km/h (4 Bft) 93,62 %
11.11.2016 12:48 3,5 C 3,3 C 2,8 C 95 % 0 lf 1018,4 hPa 0,0 l/m 0 min 0 min 44 W/m 16,7 km/h (3 Bft) 95,65 %
11.11.2016 12:50 3,4 C 3,9 C 2,8 C 95 % 0 lf 1018,5 hPa 0,0 l/m 0 min 0 min 44 W/m 18,8 km/h (3 Bft) 93,62 %
11.11.2016 12:52 3,5 C 3,3 C 2,8 C 95 % 0 lf 1018,4 hPa 0,0 l/m 0 min 0 min 42 W/m 20,9 km/h (4 Bft) 95,74 %
11.11.2016 12:54 3,5 C 3,3 C 2,8 C 95 % 0 lf 1018,4 hPa 0,0 l/m 0 min 0 min 42 W/m 18,8 km/h (3 Bft) 95,74 %
11.11.2016 12:56 3,4 C 3,3 C 2,8 C 95 % 0 lf 1018,5 hPa 0,0 l/m 0 min 0 min 42 W/m 18,8 km/h (3 Bft) 91,49 %
11.11.2016 12:58 3,5 C 3,9 C 2,8 C 95 % 0 lf 1018,5 hPa 0,0 l/m 0 min 0 min 44 W/m 18,8 km/h (3 Bft) 85,11 %
11.11.2016 13:00 3,5 C 3,3 C 2,8 C 94 % 0 lf 1018,6 hPa 0,0 l/m 0 min 0 min 41 W/m 20,9 km/h (4 Bft) 91,30 %
11.11.2016 13:02 3,5 C 3,9 C 2,8 C 94 % 0 lf 1018,7 hPa 0,0 l/m 0 min 0 min 38 W/m 23,0 km/h (4 Bft) 89,36 %
11.11.2016 13:04 3,5 C 3,3 C 2,8 C 94 % 0 lf 1018,7 hPa 0,0 l/m 0 min 0 min 37 W/m 25,1 km/h (4 Bft) 93,62 %
11.11.2016 13:06 3,5 C 3,3 C 2,8 C 94 % 0 lf 1018,7 hPa 0,0 l/m 0 min 0 min 35 W/m 16,7 km/h (3 Bft) 93,62 %
11.11.2016 13:08 3,5 C 3,3 C 2,8 C 94 % 0 lf 1018,7 hPa 0,0 l/m 0 min 0 min 38 W/m 23,0 km/h (4 Bft) 91,49 %
11.11.2016 13:10 3,5 C 3,9 C 2,8 C 94 % 0 lf 1018,8 hPa 0,0 l/m 0 min 0 min 39 W/m 18,8 km/h (3 Bft) 89,36 %
11.11.2016 13:12 3,5 C 3,9 C 2,8 C 94 % 0 lf 1018,8 hPa 0,0 l/m 0 min 0 min 39 W/m 16,7 km/h (3 Bft) 93,48 %
11.11.2016 13:14 3,5 C 3,9 C 2,8 C 94 % 0 lf 1018,8 hPa 0,0 l/m 0 min 0 min 38 W/m 23,0 km/h (4 Bft) 87,23 %
11.11.2016 13:16 3,6 C 3,9 C 2,8 C 94 % 0 lf 1018,8 hPa 0,0 l/m 0 min 0 min 36 W/m 16,7 km/h (3 Bft) 89,36 %
11.11.2016 13:18 3,6 C 3,9 C 2,8 C 94 % 0 lf 1018,8 hPa 0,0 l/m 0 min 0 min 34 W/m 16,7 km/h (3 Bft) 89,36 %
11.11.2016 13:20 3,6 C 3,9 C 2,8 C 94 % 0 lf 1018,9 hPa 0,0 l/m 0 min 0 min 34 W/m 16,7 km/h (3 Bft) 91,49 %
11.11.2016 13:22 3,6 C 3,3 C 2,8 C 94 % 0 lf 1018,9 hPa 0,0 l/m 0 min 0 min 35 W/m 20,9 km/h (4 Bft) 93,62 %
11.11.2016 13:24 3,6 C 3,3 C 2,8 C 94 % 0 lf 1018,9 hPa 0,0 l/m 0 min 0 min 37 W/m 27,2 km/h (4 Bft) 95,65 %
11.11.2016 13:26 3,5 C 3,3 C 2,8 C 93 % 0 lf 1018,9 hPa 0,0 l/m 0 min 0 min 38 W/m 25,1 km/h (4 Bft) 93,62 %
11.11.2016 13:28 3,5 C 3,3 C 2,8 C 93 % 0 lf 1018,9 hPa 0,0 l/m 0 min 0 min 39 W/m 23,0 km/h (4 Bft) 93,62 %
11.11.2016 13:30 3,5 C 3,3 C 2,8 C 93 % 0 lf 1018,9 hPa 0,0 l/m 0 min 0 min 39 W/m 27,2 km/h (4 Bft) 95,74 %
11.11.2016 13:32 3,5 C 3,3 C 2,8 C 93 % 0 lf 1019,0 hPa 0,0 l/m 0 min 0 min 41 W/m 23,0 km/h (4 Bft) 91,49 %
11.11.2016 13:34 3,5 C 3,3 C 2,8 C 93 % 0 lf 1019,0 hPa 0,0 l/m 0 min 0 min 44 W/m 20,9 km/h (4 Bft) 97,83 %
11.11.2016 13:36 3,5 C 3,3 C 2,8 C 93 % 0 lf 1019,0 hPa 0,0 l/m 0 min 0 min 41 W/m 18,8 km/h (3 Bft) 95,74 %
11.11.2016 13:38 3,5 C 3,3 C 2,8 C 93 % 0 lf 1019,1 hPa 0,0 l/m 0 min 0 min 42 W/m 27,2 km/h (4 Bft) 93,62 %
11.11.2016 13:40 3,5 C 3,3 C 2,8 C 93 % 0 lf 1019,1 hPa 0,0 l/m 0 min 0 min 48 W/m 18,8 km/h (3 Bft) 87,23 %
11.11.2016 13:42 3,4 C 3,3 C 2,8 C 93 % 0 lf 1019,0 hPa 0,0 l/m 0 min 0 min 49 W/m 20,9 km/h (4 Bft) 93,62 %
11.11.2016 13:44 3,5 C 3,3 C 2,8 C 93 % 0 lf 1019,1 hPa 0,0 l/m 0 min 0 min 52 W/m 16,7 km/h (3 Bft) 100,00 %
11.11.2016 13:46 3,5 C 3,9 C 2,8 C 93 % 0 lf 1019,0 hPa 0,0 l/m 0 min 0 min 52 W/m 14,6 km/h (3 Bft) 95,65 %
11.11.2016 13:48 3,5 C 3,9 C 2,8 C 93 % 0 lf 1019,0 hPa 0,0 l/m 0 min 0 min 51 W/m 16,7 km/h (3 Bft) 97,87 %
11.11.2016 13:50 3,5 C 3,9 C 2,8 C 93 % 0 lf 1019,0 hPa 0,0 l/m 0 min 0 min 53 W/m 14,6 km/h (3 Bft) 97,87 %
11.11.2016 13:52 3,5 C 3,9 C 2,8 C 93 % 0 lf 1019,0 hPa 0,0 l/m 0 min 0 min 56 W/m 18,8 km/h (3 Bft) 100,00 %
11.11.2016 13:54 3,5 C 3,9 C 2,8 C 92 % 0 lf 1019,1 hPa 0,0 l/m 0 min 0 min 66 W/m 14,6 km/h (3 Bft) 97,87 %
11.11.2016 13:56 3,5 C 3,9 C 2,8 C 92 % 0 lf 1019,2 hPa 0,0 l/m 0 min 0 min 72 W/m 18,8 km/h (3 Bft) 93,62 %
11.11.2016 13:58 3,5 C 3,9 C 3,3 C 92 % 0 lf 1019,2 hPa 0,0 l/m 0 min 0 min 79 W/m 18,8 km/h (3 Bft) 97,83 %
11.11.2016 14:00 3,6 C 3,9 C 3,3 C 92 % 0 lf 1019,2 hPa 0,0 l/m 0 min 0 min 75 W/m 18,8 km/h (3 Bft) 97,87 %
11.11.2016 14:02 3,6 C 3,9 C 3,3 C 92 % 0 lf 1019,3 hPa 0,0 l/m 0 min 0 min 65 W/m 20,9 km/h (4 Bft) 95,74 %
11.11.2016 14:04 3,6 C 3,9 C 3,3 C 92 % 0 lf 1019,3 hPa 0,0 l/m 0 min 0 min 63 W/m 20,9 km/h (4 Bft) 95,74 %
11.11.2016 14:06 3,6 C 3,9 C 2,8 C 92 % 0 lf 1019,3 hPa 0,0 l/m 0 min 0 min 58 W/m 18,8 km/h (3 Bft) 97,87 %
11.11.2016 14:08 3,6 C 3,9 C 2,8 C 92 % 0 lf 1019,3 hPa 0,0 l/m 0 min 0 min 53 W/m 20,9 km/h (4 Bft) 91,49 %
11.11.2016 14:10 3,6 C 3,9 C 2,8 C 92 % 0 lf 1019,3 hPa 0,0 l/m 0 min 0 min 47 W/m 18,8 km/h (3 Bft) 97,83 %
11.11.2016 14:12 3,6 C 3,9 C 2,8 C 92 % 0 lf 1019,3 hPa 0,0 l/m 0 min 0 min 52 W/m 23,0 km/h (4 Bft) 97,87 %
11.11.2016 14:14 3,6 C 3,9 C 2,8 C 92 % 0 lf 1019,4 hPa 0,0 l/m 0 min 0 min 49 W/m 14,6 km/h (3 Bft) 97,87 %
11.11.2016 14:16 3,6 C 3,9 C 2,8 C 92 % 0 lf 1019,5 hPa 0,0 l/m 0 min 0 min 49 W/m 18,8 km/h (3 Bft) 97,87 %
11.11.2016 14:18 3,6 C 3,3 C 2,8 C 92 % 0 lf 1019,6 hPa 0,0 l/m 0 min 0 min 41 W/m 20,9 km/h (4 Bft) 95,74 %
11.11.2016 14:20 3,6 C 3,9 C 2,8 C 92 % 0 lf 1019,6 hPa 0,0 l/m 0 min 0 min 38 W/m 18,8 km/h (3 Bft) 97,87 %
11.11.2016 14:22 3,6 C 3,3 C 2,8 C 92 % 0 lf 1019,6 hPa 0,0 l/m 0 min 0 min 33 W/m 25,1 km/h (4 Bft) 97,83 %
11.11.2016 14:24 3,6 C 3,3 C 2,8 C 92 % 0 lf 1019,6 hPa 0,0 l/m 0 min 0 min 36 W/m 20,9 km/h (4 Bft) 97,87 %
11.11.2016 14:26 3,5 C 3,3 C 2,8 C 92 % 0 lf 1019,7 hPa 0,0 l/m 0 min 0 min 44 W/m 16,7 km/h (3 Bft) 97,87 %
11.11.2016 14:28 3,5 C 3,3 C 2,8 C 91 % 0 lf 1019,8 hPa 0,0 l/m 0 min 0 min 50 W/m 18,8 km/h (3 Bft) 97,87 %
11.11.2016 14:30 3,5 C 3,3 C 2,8 C 91 % 0 lf 1019,8 hPa 0,0 l/m 0 min 0 min 48 W/m 18,8 km/h (3 Bft) 100,00 %
11.11.2016 14:32 3,5 C 3,3 C 2,8 C 91 % 0 lf 1019,9 hPa 0,0 l/m 0 min 0 min 38 W/m 23,0 km/h (4 Bft) 97,87 %
11.11.2016 14:34 3,5 C 3,3 C 2,8 C 91 % 0 lf 1019,9 hPa 0,0 l/m 0 min 0 min 38 W/m 16,7 km/h (3 Bft) 95,65 %
11.11.2016 14:36 3,5 C 3,3 C 2,8 C 91 % 0 lf 1019,9 hPa 0,0 l/m 0 min 0 min 45 W/m 16,7 km/h (3 Bft) 100,00 %
11.11.2016 14:38 3,5 C 3,3 C 2,8 C 91 % 0 lf 1019,9 hPa 0,0 l/m 0 min 0 min 51 W/m 12,6 km/h (3 Bft) 97,87 %
11.11.2016 14:40 3,4 C 3,3 C 2,8 C 91 % 0 lf 1019,9 hPa 0,0 l/m 0 min 0 min 62 W/m 12,6 km/h (3 Bft) 93,62 %
11.11.2016 14:42 3,4 C 3,3 C 2,8 C 90 % 0 lf 1019,9 hPa 0,0 l/m 0 min 0 min 63 W/m 18,8 km/h (3 Bft) 100,00 %
11.11.2016 14:44 3,4 C 3,3 C 2,8 C 90 % 0 lf 1020,0 hPa 0,0 l/m 0 min 0 min 60 W/m 16,7 km/h (3 Bft) 100,00 %
11.11.2016 14:46 3,4 C 3,3 C 2,8 C 90 % 0 lf 1020,0 hPa 0,0 l/m 0 min 0 min 71 W/m 16,7 km/h (3 Bft) 100,00 %
11.11.2016 14:48 3,4 C 3,9 C 2,8 C 90 % 0 lf 1020,0 hPa 0,0 l/m 0 min 0 min 85 W/m 16,7 km/h (3 Bft) 100,00 %
11.11.2016 14:50 3,4 C 3,9 C 3,3 C 90 % 0 lf 1020,2 hPa 0,0 l/m 0 min 0 min 80 W/m 16,7 km/h (3 Bft) 100,00 %
11.11.2016 14:52 3,5 C 3,9 C 3,3 C 90 % 0 lf 1020,2 hPa 0,0 l/m 0 min 0 min 73 W/m 14,6 km/h (3 Bft) 97,87 %
11.11.2016 14:54 3,5 C 3,9 C 3,3 C 90 % 0 lf 1020,2 hPa 0,0 l/m 0 min 0 min 69 W/m 16,7 km/h (3 Bft) 100,00 %
11.11.2016 14:56 3,5 C 3,9 C 3,3 C 90 % 0 lf 1020,3 hPa 0,0 l/m 0 min 0 min 67 W/m 14,6 km/h (3 Bft) 100,00 %
11.11.2016 14:58 3,5 C 3,9 C 3,3 C 90 % 0 lf 1020,3 hPa 0,0 l/m 0 min 0 min 69 W/m 14,6 km/h (3 Bft) 100,00 %
11.11.2016 15:00 3,5 C 3,9 C 3,3 C 90 % 0 lf 1020,3 hPa 0,0 l/m 0 min 0 min 67 W/m 14,6 km/h (3 Bft) 97,87 %
11.11.2016 15:02 3,6 C 3,9 C 3,3 C 90 % 0 lf 1020,3 hPa 0,0 l/m 0 min 0 min 66 W/m 14,6 km/h (3 Bft) 100,00 %
11.11.2016 15:04 3,6 C 3,9 C 3,3 C 90 % 0 lf 1020,3 hPa 0,0 l/m 0 min 0 min 74 W/m 14,6 km/h (3 Bft) 100,00 %
11.11.2016 15:06 3,6 C 3,9 C 3,3 C 89 % 0 lf 1020,4 hPa 0,0 l/m 0 min 0 min 75 W/m 16,7 km/h (3 Bft) 97,87 %
11.11.2016 15:08 3,6 C 4,4 C 3,3 C 90 % 0 lf 1020,4 hPa 0,0 l/m 0 min 0 min 65 W/m 14,6 km/h (3 Bft) 100,00 %
11.11.2016 15:10 3,6 C 4,4 C 3,3 C 90 % 0 lf 1020,5 hPa 0,0 l/m 0 min 0 min 59 W/m 10,5 km/h (2 Bft) 100,00 %
11.11.2016 15:12 3,6 C 4,4 C 3,3 C 89 % 0 lf 1020,5 hPa 0,0 l/m 0 min 0 min 55 W/m 8,4 km/h (2 Bft) 95,74 %
11.11.2016 15:14 3,6 C 4,4 C 3,3 C 89 % 0 lf 1020,6 hPa 0,0 l/m 0 min 0 min 63 W/m 10,5 km/h (2 Bft) 95,74 %
11.11.2016 15:16 3,6 C 4,4 C 3,3 C 89 % 0 lf 1020,6 hPa 0,0 l/m 0 min 0 min 67 W/m 10,5 km/h (2 Bft) 100,00 %
11.11.2016 15:18 3,6 C 4,4 C 3,3 C 89 % 0 lf 1020,8 hPa 0,0 l/m 0 min 0 min 58 W/m 14,6 km/h (3 Bft) 95,74 %
11.11.2016 15:20 3,7 C 4,4 C 3,3 C 89 % 0 lf 1020,7 hPa 0,0 l/m 0 min 0 min 51 W/m 14,6 km/h (3 Bft) 100,00 %
11.11.2016 15:22 3,7 C 4,4 C 3,3 C 89 % 0 lf 1020,7 hPa 0,0 l/m 0 min 0 min 47 W/m 12,6 km/h (3 Bft) 97,87 %
11.11.2016 15:24 3,7 C 4,4 C 3,3 C 89 % 0 lf 1020,7 hPa 0,0 l/m 0 min 0 min 53 W/m 12,6 km/h (3 Bft) 100,00 %
11.11.2016 15:26 3,7 C 4,4 C 3,3 C 89 % 0 lf 1020,7 hPa 0,0 l/m 0 min 0 min 48 W/m 8,4 km/h (2 Bft) 100,00 %
11.11.2016 15:28 3,7 C 4,4 C 3,3 C 89 % 0 lf 1020,8 hPa 0,0 l/m 0 min 0 min 40 W/m 8,4 km/h (2 Bft) 97,87 %
11.11.2016 15:30 3,7 C 4,4 C 3,3 C 89 % 0 lf 1020,8 hPa 0,0 l/m 0 min 0 min 39 W/m 8,4 km/h (2 Bft) 100,00 %
11.11.2016 15:32 3,7 C 4,4 C 3,3 C 89 % 0 lf 1020,7 hPa 0,0 l/m 0 min 0 min 35 W/m 6,3 km/h (2 Bft) 100,00 %
11.11.2016 15:34 3,7 C 4,4 C 3,3 C 89 % 0 lf 1020,8 hPa 0,0 l/m 0 min 0 min 33 W/m 6,3 km/h (2 Bft) 93,62 %
11.11.2016 15:36 3,7 C 4,4 C 3,3 C 89 % 0 lf 1020,7 hPa 0,0 l/m 0 min 0 min 39 W/m 6,3 km/h (2 Bft) 91,49 %
11.11.2016 15:38 3,7 C 4,4 C 3,3 C 89 % 0 lf 1020,8 hPa 0,0 l/m 0 min 0 min 41 W/m 6,3 km/h (2 Bft) 95,74 %
11.11.2016 15:40 3,7 C 4,4 C 3,3 C 89 % 0 lf 1020,8 hPa 0,0 l/m 0 min 0 min 39 W/m 18,8 km/h (3 Bft) 91,49 %
11.11.2016 15:42 3,7 C 4,4 C 2,8 C 89 % 0 lf 1020,9 hPa 0,0 l/m 0 min 0 min 38 W/m 16,7 km/h (3 Bft) 95,65 %
11.11.2016 15:44 3,7 C 4,4 C 2,8 C 89 % 0 lf 1020,9 hPa 0,0 l/m 0 min 0 min 35 W/m 16,7 km/h (3 Bft) 95,74 %
11.11.2016 15:46 3,8 C 4,4 C 2,8 C 89 % 0 lf 1020,9 hPa 0,0 l/m 0 min 0 min 33 W/m 14,6 km/h (3 Bft) 91,49 %
11.11.2016 15:48 3,8 C 4,4 C 2,8 C 89 % 0 lf 1021,0 hPa 0,0 l/m 0 min 0 min 31 W/m 14,6 km/h (3 Bft) 93,62 %
11.11.2016 15:50 3,8 C 4,4 C 2,8 C 89 % 0 lf 1021,0 hPa 0,0 l/m 0 min 0 min 26 W/m 14,6 km/h (3 Bft) 93,62 %
11.11.2016 15:52 3,8 C 4,4 C 2,8 C 89 % 0 lf 1021,0 hPa 0,0 l/m 0 min 0 min 19 W/m 10,5 km/h (2 Bft) 91,49 %
11.11.2016 15:54 3,8 C 4,4 C 2,8 C 89 % 0 lf 1021,1 hPa 0,0 l/m 0 min 0 min 18 W/m 10,5 km/h (2 Bft) 91,49 %
11.11.2016 15:56 3,8 C 3,9 C 2,8 C 89 % 0 lf 1021,0 hPa 0,0 l/m 0 min 0 min 18 W/m 16,7 km/h (3 Bft) 93,48 %
11.11.2016 15:58 3,8 C 3,9 C 2,8 C 89 % 0 lf 1021,0 hPa 0,0 l/m 0 min 0 min 21 W/m 12,6 km/h (3 Bft) 91,49 %
11.11.2016 16:00 3,8 C 3,9 C 2,8 C 89 % 0 lf 1021,0 hPa 0,0 l/m 0 min 0 min 25 W/m 10,5 km/h (2 Bft) 93,62 %
11.11.2016 16:02 3,8 C 3,9 C 2,8 C 89 % 0 lf 1021,0 hPa 0,0 l/m 0 min 0 min 26 W/m 12,6 km/h (3 Bft) 91,49 %
11.11.2016 16:04 3,8 C 3,9 C 2,8 C 89 % 0 lf 1021,0 hPa 0,0 l/m 0 min 0 min 26 W/m 12,6 km/h (3 Bft) 91,49 %
11.11.2016 16:06 3,7 C 3,9 C 2,8 C 89 % 0 lf 1021,1 hPa 0,0 l/m 0 min 0 min 26 W/m 16,7 km/h (3 Bft) 91,49 %
11.11.2016 16:08 3,7 C 3,9 C 2,8 C 89 % 0 lf 1021,1 hPa 0,0 l/m 0 min 0 min 26 W/m 16,7 km/h (3 Bft) 91,30 %
11.11.2016 16:10 3,7 C 3,9 C 2,8 C 89 % 0 lf 1021,1 hPa 0,0 l/m 0 min 0 min 24 W/m 18,8 km/h (3 Bft) 89,36 %
11.11.2016 16:12 3,7 C 3,9 C 2,8 C 89 % 0 lf 1021,2 hPa 0,0 l/m 0 min 0 min 21 W/m 14,6 km/h (3 Bft) 91,49 %
11.11.2016 16:14 3,7 C 3,9 C 2,8 C 89 % 0 lf 1021,1 hPa 0,0 l/m 0 min 0 min 21 W/m 16,7 km/h (3 Bft) 93,62 %
11.11.2016 16:16 3,7 C 3,9 C 2,8 C 89 % 0 lf 1021,1 hPa 0,0 l/m 0 min 0 min 19 W/m 14,6 km/h (3 Bft) 95,74 %
11.11.2016 16:18 3,6 C 3,9 C 2,8 C 88 % 0 lf 1021,2 hPa 0,0 l/m 0 min 0 min 19 W/m 23,0 km/h (4 Bft) 95,65 %
11.11.2016 16:20 3,6 C 3,9 C 2,8 C 88 % 0 lf 1021,4 hPa 0,0 l/m 0 min 0 min 15 W/m 14,6 km/h (3 Bft) 97,87 %
11.11.2016 16:22 3,6 C 3,9 C 2,8 C 88 % 0 lf 1021,4 hPa 0,0 l/m 0 min 0 min 13 W/m 12,6 km/h (3 Bft) 95,74 %
11.11.2016 16:24 3,6 C 3,9 C 2,8 C 88 % 0 lf 1021,4 hPa 0,0 l/m 0 min 0 min 12 W/m 14,6 km/h (3 Bft) 97,87 %
11.11.2016 16:26 3,6 C 3,9 C 2,8 C 88 % 0 lf 1021,4 hPa 0,0 l/m 0 min 0 min 10 W/m 12,6 km/h (3 Bft) 100,00 %
11.11.2016 16:28 3,6 C 3,9 C 2,8 C 87 % 0 lf 1021,5 hPa 0,0 l/m 0 min 0 min 8 W/m 8,4 km/h (2 Bft) 100,00 %
11.11.2016 16:30 3,6 C 3,9 C 2,8 C 87 % 0 lf 1021,5 hPa 0,0 l/m 0 min 0 min 7 W/m 14,6 km/h (3 Bft) 97,83 %
11.11.2016 16:32 3,6 C 3,9 C 2,8 C 88 % 0 lf 1021,6 hPa 0,0 l/m 0 min 0 min 6 W/m 10,5 km/h (2 Bft) 97,87 %
11.11.2016 16:34 3,6 C 3,9 C 2,8 C 88 % 0 lf 1021,6 hPa 0,0 l/m 0 min 0 min 5 W/m 10,5 km/h (2 Bft) 97,87 %
11.11.2016 16:36 3,6 C 3,9 C 2,8 C 88 % 0 lf 1021,7 hPa 0,0 l/m 0 min 0 min 5 W/m 14,6 km/h (3 Bft) 97,87 %
11.11.2016 16:38 3,6 C 3,9 C 2,8 C 88 % 0 lf 1021,7 hPa 0,0 l/m 0 min 0 min 5 W/m 10,5 km/h (2 Bft) 97,87 %
11.11.2016 16:40 3,6 C 3,9 C 2,8 C 88 % 0 lf 1021,7 hPa 0,0 l/m 0 min 0 min 5 W/m 8,4 km/h (2 Bft) 95,74 %
11.11.2016 16:42 3,6 C 3,9 C 2,2 C 88 % 0 lf 1021,8 hPa 0,0 l/m 0 min 0 min 5 W/m 8,4 km/h (2 Bft) 100,00 %
11.11.2016 16:44 3,6 C 3,9 C 2,2 C 88 % 0 lf 1021,8 hPa 0,0 l/m 0 min 0 min 4 W/m 8,4 km/h (2 Bft) 95,74 %
11.11.2016 16:46 3,6 C 3,9 C 2,2 C 88 % 0 lf 1021,8 hPa 0,0 l/m 0 min 0 min 0 W/m 6,3 km/h (2 Bft) 97,87 %
11.11.2016 16:48 3,6 C 3,9 C 2,2 C 88 % 0 lf 1021,8 hPa 0,0 l/m 0 min 0 min 0 W/m 8,4 km/h (2 Bft) 97,87 %
11.11.2016 16:50 3,6 C 3,9 C 2,2 C 88 % 0 lf 1021,8 hPa 0,0 l/m 0 min 0 min 0 W/m 10,5 km/h (2 Bft) 95,74 %
11.11.2016 16:52 3,6 C 3,9 C 2,2 C 87 % 0 lf 1021,9 hPa 0,0 l/m 0 min 0 min 0 W/m 10,5 km/h (2 Bft) 97,87 %
11.11.2016 16:54 3,5 C 3,9 C 2,2 C 87 % 0 lf 1021,9 hPa 0,0 l/m 0 min 0 min 0 W/m 8,4 km/h (2 Bft) 97,83 %
11.11.2016 16:56 3,5 C 3,9 C 2,2 C 87 % 0 lf 1021,9 hPa 0,0 l/m 0 min 0 min 0 W/m 8,4 km/h (2 Bft) 93,62 %
11.11.2016 16:58 3,5 C 3,9 C 2,2 C 87 % 0 lf 1022,0 hPa 0,0 l/m 0 min 0 min 0 W/m 8,4 km/h (2 Bft) 97,87 %
11.11.2016 17:00 3,5 C 3,9 C 2,2 C 87 % 0 lf 1022,0 hPa 0,0 l/m 0 min 0 min 0 W/m 6,3 km/h (2 Bft) 95,74 %
11.11.2016 17:02 3,5 C 3,9 C 2,2 C 87 % 0 lf 1022,0 hPa 0,0 l/m 0 min 0 min 0 W/m 8,4 km/h (2 Bft) 97,87 %
11.11.2016 17:04 3,5 C 3,9 C 2,2 C 87 % 0 lf 1022,0 hPa 0,0 l/m 0 min 0 min 0 W/m 6,3 km/h (2 Bft) 95,65 %
11.11.2016 17:06 3,5 C 3,9 C 2,2 C 87 % 0 lf 1022,0 hPa 0,0 l/m 0 min 0 min 0 W/m 4,2 km/h (1 Bft) 95,74 %
11.11.2016 17:08 3,5 C 3,9 C 2,2 C 87 % 0 lf 1022,0 hPa 0,0 l/m 0 min 0 min 0 W/m 6,3 km/h (2 Bft) 95,74 %
11.11.2016 17:10 3,5 C 3,9 C 2,2 C 88 % 0 lf 1022,0 hPa 0,0 l/m 0 min 0 min 0 W/m 6,3 km/h (2 Bft) 97,87 %
11.11.2016 17:12 3,5 C 3,3 C 2,2 C 88 % 0 lf 1022,0 hPa 0,0 l/m 0 min 0 min 0 W/m 4,2 km/h (1 Bft) 95,74 %
11.11.2016 17:14 3,5 C 3,3 C 2,2 C 88 % 0 lf 1022,0 hPa 0,0 l/m 0 min 0 min 0 W/m 6,3 km/h (2 Bft) 95,74 %
11.11.2016 17:16 3,5 C 3,3 C 2,2 C 88 % 0 lf 1022,1 hPa 0,0 l/m 0 min 0 min 0 W/m 6,3 km/h (2 Bft) 97,83 %
11.11.2016 17:18 3,5 C 3,3 C 2,2 C 88 % 0 lf 1022,1 hPa 0,0 l/m 0 min 0 min 0 W/m 8,4 km/h (2 Bft) 95,74 %
11.11.2016 17:20 3,5 C 3,3 C 2,2 C 88 % 0 lf 1022,1 hPa 0,0 l/m 0 min 0 min 0 W/m 10,5 km/h (2 Bft) 97,87 %
11.11.2016 17:22 3,5 C 3,3 C 2,2 C 88 % 0 lf 1022,1 hPa 0,0 l/m 0 min 0 min 0 W/m 8,4 km/h (2 Bft) 93,62 %
11.11.2016 17:24 3,5 C 3,3 C 2,2 C 88 % 0 lf 1022,1 hPa 0,0 l/m 0 min 0 min 0 W/m 10,5 km/h (2 Bft) 93,62 %
11.11.2016 17:26 3,5 C 3,3 C 2,2 C 88 % 0 lf 1022,1 hPa 0,0 l/m 0 min 0 min 0 W/m 8,4 km/h (2 Bft) 97,87 %
11.11.2016 17:28 3,5 C 3,3 C 2,2 C 88 % 0 lf 1022,1 hPa 0,0 l/m 0 min 0 min 0 W/m 8,4 km/h (2 Bft) 95,65 %
11.11.2016 17:30 3,5 C 3,3 C 2,2 C 88 % 0 lf 1022,1 hPa 0,0 l/m 0 min 0 min 0 W/m 6,3 km/h (2 Bft) 97,87 %
11.11.2016 17:32 3,5 C 3,3 C 2,2 C 88 % 0 lf 1022,2 hPa 0,0 l/m 0 min 0 min 0 W/m 6,3 km/h (2 Bft) 91,49 %
11.11.2016 17:34 3,5 C 3,3 C 2,2 C 88 % 0 lf 1022,3 hPa 0,0 l/m 0 min 0 min 0 W/m 6,3 km/h (2 Bft) 97,87 %
11.11.2016 17:36 3,5 C 3,3 C 2,2 C 88 % 0 lf 1022,3 hPa 0,0 l/m 0 min 0 min 0 W/m 8,4 km/h (2 Bft) 95,74 %
11.11.2016 17:38 3,4 C 3,3 C 2,2 C 88 % 0 lf 1022,3 hPa 0,0 l/m 0 min 0 min 0 W/m 8,4 km/h (2 Bft) 93,62 %
11.11.2016 17:40 3,4 C 3,3 C 2,2 C 88 % 0 lf 1022,4 hPa 0,0 l/m 0 min 0 min 0 W/m 6,3 km/h (2 Bft) 95,65 %
11.11.2016 17:42 3,4 C 3,3 C 2,2 C 88 % 0 lf 1022,5 hPa 0,0 l/m 0 min 0 min 0 W/m 8,4 km/h (2 Bft) 95,74 %
11.11.2016 17:44 3,4 C 3,3 C 2,2 C 88 % 0 lf 1022,4 hPa 0,0 l/m 0 min 0 min 0 W/m 8,4 km/h (2 Bft) 95,74 %
11.11.2016 17:46 3,4 C 3,3 C 2,2 C 88 % 0 lf 1022,4 hPa 0,0 l/m 0 min 0 min 0 W/m 8,4 km/h (2 Bft) 93,62 %
11.11.2016 17:48 3,4 C 3,3 C 2,2 C 88 % 0 lf 1022,4 hPa 0,0 l/m 0 min 0 min 0 W/m 6,3 km/h (2 Bft) 87,23 %
11.11.2016 17:50 3,4 C 3,3 C 2,2 C 89 % 0 lf 1022,5 hPa 0,0 l/m 0 min 0 min 0 W/m 8,4 km/h (2 Bft) 95,74 %
11.11.2016 17:52 3,4 C 3,3 C 2,2 C 89 % 0 lf 1022,5 hPa 0,0 l/m 0 min 0 min 0 W/m 8,4 km/h (2 Bft) 95,65 %
11.11.2016 17:54 3,4 C 3,3 C 2,2 C 89 % 0 lf 1022,6 hPa 0,0 l/m 0 min 0 min 0 W/m 4,2 km/h (1 Bft) 89,36 %
11.11.2016 17:56 3,4 C 3,3 C 2,2 C 89 % 0 lf 1022,6 hPa 0,0 l/m 0 min 0 min 0 W/m 6,3 km/h (2 Bft) 93,62 %
11.11.2016 17:58 3,4 C 3,3 C 2,2 C 89 % 0 lf 1022,7 hPa 0,0 l/m 0 min 0 min 0 W/m 8,4 km/h (2 Bft) 91,49 %
11.11.2016 18:00 3,4 C 3,3 C 2,2 C 89 % 0 lf 1022,7 hPa 0,0 l/m 0 min 0 min 0 W/m 8,4 km/h (2 Bft) 95,74 %
11.11.2016 18:02 3,4 C 3,3 C 2,2 C 89 % 0 lf 1022,7 hPa 0,0 l/m 0 min 0 min 0 W/m 8,4 km/h (2 Bft) 97,87 %
11.11.2016 18:06 3,3 C 3,3 C 2,2 C 89 % 0 lf 1022,7 hPa 0,0 l/m 0 min 0 min 0 W/m 12,6 km/h (3 Bft) 95,96 %
11.11.2016 18:08 3,3 C 3,3 C 2,2 C 89 % 0 lf 1022,7 hPa 0,0 l/m 0 min 0 min 0 W/m 8,4 km/h (2 Bft) 97,87 %
11.11.2016 18:10 3,3 C 3,3 C 2,2 C 89 % 0 lf 1022,7 hPa 0,0 l/m 0 min 0 min 0 W/m 10,5 km/h (2 Bft) 100,00 %
11.11.2016 18:12 3,3 C 3,3 C 2,2 C 89 % 0 lf 1022,7 hPa 0,0 l/m 0 min 0 min 0 W/m 12,6 km/h (3 Bft) 97,83 %
11.11.2016 18:14 3,3 C 3,3 C 2,2 C 89 % 0 lf 1022,7 hPa 0,0 l/m 0 min 0 min 0 W/m 8,4 km/h (2 Bft) 95,74 %
11.11.2016 18:16 3,2 C 3,3 C 2,2 C 89 % 0 lf 1022,8 hPa 0,0 l/m 0 min 0 min 0 W/m 10,5 km/h (2 Bft) 93,62 %
11.11.2016 18:18 3,2 C 3,3 C 1,7 C 89 % 0 lf 1022,8 hPa 0,0 l/m 0 min 0 min 0 W/m 10,5 km/h (2 Bft) 95,74 %
11.11.2016 18:20 3,2 C 3,3 C 1,7 C 89 % 0 lf 1022,7 hPa 0,0 l/m 0 min 0 min 0 W/m 8,4 km/h (2 Bft) 97,87 %
11.11.2016 18:22 3,2 C 3,3 C 1,7 C 89 % 0 lf 1022,7 hPa 0,0 l/m 0 min 0 min 0 W/m 10,5 km/h (2 Bft) 97,87 %
11.11.2016 18:24 3,2 C 3,3 C 1,7 C 89 % 0 lf 1022,8 hPa 0,0 l/m 0 min 0 min 0 W/m 8,4 km/h (2 Bft) 95,65 %
11.11.2016 18:26 3,2 C 2,8 C 1,7 C 89 % 0 lf 1022,9 hPa 0,0 l/m 0 min 0 min 0 W/m 10,5 km/h (2 Bft) 91,49 %
11.11.2016 18:28 3,1 C 2,8 C 1,7 C 89 % 0 lf 1022,8 hPa 0,0 l/m 0 min 0 min 0 W/m 10,5 km/h (2 Bft) 95,74 %
11.11.2016 18:30 3,1 C 2,8 C 1,7 C 89 % 0 lf 1022,9 hPa 0,0 l/m 0 min 0 min 0 W/m 10,5 km/h (2 Bft) 97,87 %
11.11.2016 18:32 3,1 C 2,8 C 1,7 C 89 % 0 lf 1023,0 hPa 0,0 l/m 0 min 0 min 0 W/m 8,4 km/h (2 Bft) 97,87 %
11.11.2016 18:34 3,1 C 2,8 C 1,7 C 88 % 0 lf 1023,0 hPa 0,0 l/m 0 min 0 min 0 W/m 8,4 km/h (2 Bft) 97,87 %
11.11.2016 18:36 3,0 C 2,8 C 1,7 C 88 % 0 lf 1023,1 hPa 0,0 l/m 0 min 0 min 0 W/m 10,5 km/h (2 Bft) 97,83 %
11.11.2016 18:38 3,0 C 2,8 C 1,7 C 88 % 0 lf 1023,1 hPa 0,0 l/m 0 min 0 min 0 W/m 10,5 km/h (2 Bft) 93,62 %
11.11.2016 18:40 3,0 C 2,8 C 1,7 C 88 % 0 lf 1023,1 hPa 0,0 l/m 0 min 0 min 0 W/m 14,6 km/h (3 Bft) 95,74 %
11.11.2016 18:42 2,9 C 2,8 C 1,7 C 88 % 0 lf 1023,2 hPa 0,0 l/m 0 min 0 min 0 W/m 12,6 km/h (3 Bft) 93,62 %
11.11.2016 18:44 2,9 C 3,3 C 1,7 C 88 % 0 lf 1023,3 hPa 0,0 l/m 0 min 0 min 0 W/m 12,6 km/h (3 Bft) 95,74 %
11.11.2016 18:46 2,9 C 3,3 C 1,7 C 88 % 0 lf 1023,2 hPa 0,0 l/m 0 min 0 min 0 W/m 12,6 km/h (3 Bft) 93,62 %
11.11.2016 18:48 2,9 C 3,3 C 1,7 C 88 % 0 lf 1023,2 hPa 0,0 l/m 0 min 0 min 0 W/m 10,5 km/h (2 Bft) 95,65 %
11.11.2016 18:50 2,9 C 2,8 C 1,7 C 88 % 0 lf 1023,2 hPa 0,0 l/m 0 min 0 min 0 W/m 10,5 km/h (2 Bft) 95,74 %
11.11.2016 18:52 2,9 C 2,8 C 1,7 C 88 % 0 lf 1023,2 hPa 0,0 l/m 0 min 0 min 0 W/m 8,4 km/h (2 Bft) 95,74 %
11.11.2016 18:54 2,9 C 2,8 C 1,7 C 88 % 0 lf 1023,2 hPa 0,0 l/m 0 min 0 min 0 W/m 8,4 km/h (2 Bft) 93,62 %
11.11.2016 18:56 2,9 C 2,8 C 1,7 C 88 % 0 lf 1023,3 hPa 0,0 l/m 0 min 0 min 0 W/m 8,4 km/h (2 Bft) 92,68 %
11.11.2016 18:58 2,9 C 2,8 C 1,7 C 88 % 0 lf 1023,4 hPa 0,0 l/m 0 min 0 min 0 W/m 10,5 km/h (2 Bft) 95,74 %
11.11.2016 19:00 2,9 C 2,8 C 1,7 C 88 % 0 lf 1023,4 hPa 0,0 l/m 0 min 0 min 0 W/m 6,3 km/h (2 Bft) 95,74 %
11.11.2016 19:02 2,9 C 2,8 C 1,7 C 88 % 0 lf 1023,4 hPa 0,0 l/m 0 min 0 min 0 W/m 8,4 km/h (2 Bft) 96,15 %
11.11.2016 19:04 2,9 C 2,8 C 1,7 C 88 % 0 lf 1023,5 hPa 0,0 l/m 0 min 0 min 0 W/m 8,4 km/h (2 Bft) 95,74 %
11.11.2016 19:06 2,9 C 2,8 C 1,7 C 88 % 0 lf 1023,5 hPa 0,0 l/m 0 min 0 min 0 W/m 8,4 km/h (2 Bft) 93,62 %
11.11.2016 19:08 2,9 C 2,8 C 1,7 C 88 % 0 lf 1023,6 hPa 0,0 l/m 0 min 0 min 0 W/m 8,4 km/h (2 Bft) 95,74 %
11.11.2016 19:10 2,9 C 2,8 C 1,7 C 88 % 0 lf 1023,7 hPa 0,0 l/m 0 min 0 min 0 W/m 10,5 km/h (2 Bft) 95,74 %
11.11.2016 19:12 2,9 C 2,8 C 1,7 C 88 % 0 lf 1023,7 hPa 0,0 l/m 0 min 0 min 0 W/m 10,5 km/h (2 Bft) 93,48 %
11.11.2016 19:14 2,9 C 2,8 C 1,7 C 88 % 0 lf 1023,7 hPa 0,0 l/m 0 min 0 min 0 W/m 10,5 km/h (2 Bft) 95,74 %
11.11.2016 19:16 2,9 C 2,8 C 1,7 C 88 % 0 lf 1023,7 hPa 0,0 l/m 0 min 0 min 0 W/m 10,5 km/h (2 Bft) 97,87 %
11.11.2016 19:18 2,9 C 2,8 C 1,7 C 88 % 0 lf 1023,7 hPa 0,0 l/m 0 min 0 min 0 W/m 10,5 km/h (2 Bft) 95,74 %
11.11.2016 19:20 2,8 C 2,8 C 1,7 C 88 % 0 lf 1023,7 hPa 0,0 l/m 0 min 0 min 0 W/m 6,3 km/h (2 Bft) 97,87 %
11.11.2016 19:22 2,8 C 2,8 C 1,7 C 88 % 0 lf 1023,6 hPa 0,0 l/m 0 min 0 min 0 W/m 10,5 km/h (2 Bft) 97,83 %
11.11.2016 19:24 2,8 C 2,8 C 1,7 C 88 % 0 lf 1023,6 hPa 0,0 l/m 0 min 0 min 0 W/m 8,4 km/h (2 Bft) 95,74 %
11.11.2016 19:26 2,8 C 2,8 C 1,1 C 87 % 0 lf 1023,7 hPa 0,0 l/m 0 min 0 min 0 W/m 8,4 km/h (2 Bft) 93,62 %
11.11.2016 19:28 2,8 C 2,8 C 1,1 C 87 % 0 lf 1023,7 hPa 0,0 l/m 0 min 0 min 0 W/m 8,4 km/h (2 Bft) 93,62 %
11.11.2016 19:30 2,8 C 2,8 C 1,1 C 87 % 0 lf 1023,8 hPa 0,0 l/m 0 min 0 min 0 W/m 10,5 km/h (2 Bft) 93,62 %
11.11.2016 19:32 2,8 C 2,8 C 1,1 C 87 % 0 lf 1023,8 hPa 0,0 l/m 0 min 0 min 0 W/m 6,3 km/h (2 Bft) 97,87 %
11.11.2016 19:34 2,8 C 2,8 C 1,1 C 87 % 0 lf 1023,8 hPa 0,0 l/m 0 min 0 min 0 W/m 4,2 km/h (1 Bft) 97,83 %
11.11.2016 19:36 2,7 C 2,8 C 1,1 C 87 % 0 lf 1023,7 hPa 0,0 l/m 0 min 0 min 0 W/m 8,4 km/h (2 Bft) 97,87 %
11.11.2016 19:38 2,7 C 2,2 C 1,1 C 87 % 0 lf 1023,7 hPa 0,0 l/m 0 min 0 min 0 W/m 6,3 km/h (2 Bft) 97,87 %
11.11.2016 19:40 2,7 C 2,2 C 1,1 C 87 % 0 lf 1023,7 hPa 0,0 l/m 0 min 0 min 0 W/m 4,2 km/h (1 Bft) 95,74 %
11.11.2016 19:42 2,7 C 2,2 C 1,1 C 87 % 0 lf 1023,7 hPa 0,0 l/m 0 min 0 min 0 W/m 4,2 km/h (1 Bft) 97,87 %
11.11.2016 19:44 2,7 C 2,2 C 1,1 C 87 % 0 lf 1023,7 hPa 0,0 l/m 0 min 0 min 0 W/m 6,3 km/h (2 Bft) 97,56 %
11.11.2016 19:46 2,7 C 2,2 C 1,1 C 87 % 0 lf 1023,7 hPa 0,0 l/m 0 min 0 min 0 W/m 8,4 km/h (2 Bft) 96,15 %
11.11.2016 19:48 2,7 C 2,2 C 1,1 C 87 % 0 lf 1023,8 hPa 0,0 l/m 0 min 0 min 0 W/m 6,3 km/h (2 Bft) 97,87 %
11.11.2016 19:50 2,7 C 2,2 C 1,1 C 87 % 0 lf 1023,7 hPa 0,0 l/m 0 min 0 min 0 W/m 8,4 km/h (2 Bft) 97,87 %
11.11.2016 19:52 2,7 C 2,2 C 1,1 C 87 % 0 lf 1023,7 hPa 0,0 l/m 0 min 0 min 0 W/m 8,4 km/h (2 Bft) 97,87 %
11.11.2016 19:54 2,7 C 2,2 C 1,1 C 87 % 0 lf 1023,7 hPa 0,0 l/m 0 min 0 min 0 W/m 8,4 km/h (2 Bft) 95,74 %
11.11.2016 19:56 2,6 C 2,2 C 1,1 C 87 % 0 lf 1023,7 hPa 0,0 l/m 0 min 0 min 0 W/m 20,9 km/h (4 Bft) 100,00 %
11.11.2016 19:58 2,6 C 2,2 C 1,1 C 87 % 0 lf 1023,7 hPa 0,0 l/m 0 min 0 min 0 W/m 14,6 km/h (3 Bft) 100,00 %
11.11.2016 20:00 2,6 C 2,2 C 1,1 C 87 % 0 lf 1023,7 hPa 0,0 l/m 0 min 0 min 0 W/m 14,6 km/h (3 Bft) 100,00 %
11.11.2016 20:02 2,6 C 2,2 C 1,1 C 87 % 0 lf 1023,7 hPa 0,0 l/m 0 min 0 min 0 W/m 18,8 km/h (3 Bft) 97,87 %
11.11.2016 20:04 2,6 C 2,2 C 1,1 C 87 % 0 lf 1023,7 hPa 0,0 l/m 0 min 0 min 0 W/m 18,8 km/h (3 Bft) 97,87 %
11.11.2016 20:06 2,6 C 2,2 C 1,1 C 87 % 0 lf 1023,7 hPa 0,0 l/m 0 min 0 min 0 W/m 10,5 km/h (2 Bft) 97,87 %
11.11.2016 20:08 2,5 C 2,2 C 1,1 C 87 % 0 lf 1023,7 hPa 0,0 l/m 0 min 0 min 0 W/m 12,6 km/h (3 Bft) 100,00 %
11.11.2016 20:10 2,5 C 2,2 C 1,1 C 87 % 0 lf 1023,7 hPa 0,0 l/m 0 min 0 min 0 W/m 6,3 km/h (2 Bft) 97,83 %
11.11.2016 20:12 2,5 C 2,2 C 1,1 C 87 % 0 lf 1023,7 hPa 0,0 l/m 0 min 0 min 0 W/m 10,5 km/h (2 Bft) 100,00 %
11.11.2016 20:14 2,5 C 2,2 C 1,1 C 87 % 0 lf 1023,7 hPa 0,0 l/m 0 min 0 min 0 W/m 6,3 km/h (2 Bft) 97,87 %
11.11.2016 20:16 2,5 C 2,2 C 1,1 C 87 % 0 lf 1023,7 hPa 0,0 l/m 0 min 0 min 0 W/m 14,6 km/h (3 Bft) 100,00 %
11.11.2016 20:18 2,4 C 2,2 C 1,1 C 87 % 0 lf 1023,7 hPa 0,0 l/m 0 min 0 min 0 W/m 6,3 km/h (2 Bft) 97,87 %
11.11.2016 20:20 2,4 C 2,2 C 1,1 C 87 % 0 lf 1023,8 hPa 0,0 l/m 0 min 0 min 0 W/m 12,6 km/h (3 Bft) 95,74 %
11.11.2016 20:22 2,4 C 2,2 C 1,1 C 87 % 0 lf 1023,8 hPa 0,0 l/m 0 min 0 min 0 W/m 10,5 km/h (2 Bft) 100,00 %
11.11.2016 20:24 2,4 C 2,2 C 0,6 C 87 % 0 lf 1023,8 hPa 0,0 l/m 0 min 0 min 0 W/m 10,5 km/h (2 Bft) 93,62 %
11.11.2016 20:26 2,4 C 2,2 C 0,6 C 87 % 0 lf 1023,9 hPa 0,0 l/m 0 min 0 min 0 W/m 6,3 km/h (2 Bft) 100,00 %
11.11.2016 20:28 2,3 C 2,2 C 0,6 C 87 % 0 lf 1023,9 hPa 0,0 l/m 0 min 0 min 0 W/m 10,5 km/h (2 Bft) 100,00 %
11.11.2016 20:30 2,3 C 2,2 C 0,6 C 87 % 0 lf 1023,8 hPa 0,0 l/m 0 min 0 min 0 W/m 10,5 km/h (2 Bft) 97,87 %
11.11.2016 20:32 2,3 C 2,2 C 0,6 C 87 % 0 lf 1023,8 hPa 0,0 l/m 0 min 0 min 0 W/m 8,4 km/h (2 Bft) 97,83 %
11.11.2016 20:34 2,3 C 2,2 C 0,6 C 87 % 0 lf 1023,8 hPa 0,0 l/m 0 min 0 min 0 W/m 8,4 km/h (2 Bft) 97,87 %
11.11.2016 20:36 2,3 C 2,2 C 0,6 C 87 % 0 lf 1023,9 hPa 0,0 l/m 0 min 0 min 0 W/m 6,3 km/h (2 Bft) 97,87 %
11.11.2016 20:38 2,3 C 1,7 C 0,6 C 87 % 0 lf 1023,9 hPa 0,0 l/m 0 min 0 min 0 W/m 6,3 km/h (2 Bft) 97,87 %
11.11.2016 20:40 2,2 C 2,2 C 0,6 C 87 % 0 lf 1024,0 hPa 0,0 l/m 0 min 0 min 0 W/m 8,4 km/h (2 Bft) 97,87 %
11.11.2016 20:42 2,2 C 2,2 C 0,6 C 87 % 0 lf 1024,0 hPa 0,0 l/m 0 min 0 min 0 W/m 8,4 km/h (2 Bft) 100,00 %
11.11.2016 20:44 2,2 C 2,2 C 0,6 C 87 % 0 lf 1024,1 hPa 0,0 l/m 0 min 0 min 0 W/m 6,3 km/h (2 Bft) 100,00 %
11.11.2016 20:46 2,2 C 2,2 C 0,6 C 87 % 0 lf 1024,2 hPa 0,0 l/m 0 min 0 min 0 W/m 6,3 km/h (2 Bft) 97,87 %
11.11.2016 20:48 2,2 C 2,2 C 0,6 C 87 % 0 lf 1024,2 hPa 0,0 l/m 0 min 0 min 0 W/m 4,2 km/h (1 Bft) 97,87 %
11.11.2016 20:50 2,2 C 2,2 C 0,6 C 87 % 0 lf 1024,2 hPa 0,0 l/m 0 min 0 min 0 W/m 4,2 km/h (1 Bft) 97,87 %
11.11.2016 20:52 2,2 C 2,2 C 0,6 C 87 % 0 lf 1024,2 hPa 0,0 l/m 0 min 0 min 0 W/m 6,3 km/h (2 Bft) 97,87 %
11.11.2016 20:54 2,1 C 2,2 C 0,6 C 87 % 0 lf 1024,2 hPa 0,0 l/m 0 min 0 min 0 W/m 6,3 km/h (2 Bft) 97,87 %
11.11.2016 20:56 2,1 C 2,2 C 0,6 C 87 % 0 lf 1024,2 hPa 0,0 l/m 0 min 0 min 0 W/m 4,2 km/h (1 Bft) 95,65 %
11.11.2016 20:58 2,1 C 2,2 C 1,1 C 88 % 0 lf 1024,2 hPa 0,0 l/m 0 min 0 min 0 W/m 4,2 km/h (1 Bft) 97,87 %
11.11.2016 21:00 2,1 C 2,2 C 1,1 C 88 % 0 lf 1024,2 hPa 0,0 l/m 0 min 0 min 0 W/m 4,2 km/h (1 Bft) 95,74 %
11.11.2016 21:02 2,1 C 2,2 C 1,1 C 88 % 0 lf 1024,2 hPa 0,0 l/m 0 min 0 min 0 W/m 6,3 km/h (2 Bft) 95,74 %
11.11.2016 21:04 2,1 C 2,2 C 1,1 C 88 % 0 lf 1024,2 hPa 0,0 l/m 0 min 0 min 0 W/m 6,3 km/h (2 Bft) 93,62 %
11.11.2016 21:06 2,1 C 2,2 C 1,1 C 88 % 0 lf 1024,2 hPa 0,0 l/m 0 min 0 min 0 W/m 6,3 km/h (2 Bft) 90,24 %
11.11.2016 21:08 2,1 C 2,2 C 1,1 C 88 % 0 lf 1024,3 hPa 0,0 l/m 0 min 0 min 0 W/m 6,3 km/h (2 Bft) 93,62 %
11.11.2016 21:10 2,0 C 2,2 C 1,1 C 88 % 0 lf 1024,2 hPa 0,0 l/m 0 min 0 min 0 W/m 10,5 km/h (2 Bft) 93,48 %
11.11.2016 21:12 2,0 C 2,2 C 1,1 C 88 % 0 lf 1024,3 hPa 0,0 l/m 0 min 0 min 0 W/m 12,6 km/h (3 Bft) 95,74 %
11.11.2016 21:14 2,0 C 2,2 C 1,1 C 88 % 0 lf 1024,3 hPa 0,0 l/m 0 min 0 min 0 W/m 12,6 km/h (3 Bft) 95,74 %
11.11.2016 21:16 1,9 C 2,2 C 1,1 C 88 % 0 lf 1024,3 hPa 0,0 l/m 0 min 0 min 0 W/m 12,6 km/h (3 Bft) 90,57 %
11.11.2016 21:18 1,9 C 2,2 C 1,1 C 88 % 0 lf 1024,3 hPa 0,0 l/m 0 min 0 min 0 W/m 6,3 km/h (2 Bft) 93,62 %
11.11.2016 21:20 1,9 C 2,2 C 1,1 C 88 % 0 lf 1024,2 hPa 0,0 l/m 0 min 0 min 0 W/m 6,3 km/h (2 Bft) 90,24 %
11.11.2016 21:22 1,9 C 2,2 C 1,1 C 88 % 0 lf 1024,2 hPa 0,0 l/m 0 min 0 min 0 W/m 10,5 km/h (2 Bft) 93,48 %
11.11.2016 21:24 1,9 C 2,2 C 1,1 C 88 % 0 lf 1024,2 hPa 0,0 l/m 0 min 0 min 0 W/m 6,3 km/h (2 Bft) 93,62 %
11.11.2016 21:26 1,9 C 2,2 C 1,1 C 88 % 0 lf 1024,2 hPa 0,0 l/m 0 min 0 min 0 W/m 10,5 km/h (2 Bft) 93,62 %
11.11.2016 21:28 1,9 C 2,2 C 1,1 C 87 % 0 lf 1024,2 hPa 0,0 l/m 0 min 0 min 0 W/m 10,5 km/h (2 Bft) 93,62 %
11.11.2016 21:30 1,9 C 2,2 C 0,6 C 87 % 0 lf 1024,2 hPa 0,0 l/m 0 min 0 min 0 W/m 10,5 km/h (2 Bft) 93,62 %
11.11.2016 21:32 1,9 C 2,2 C 0,6 C 87 % 0 lf 1024,2 hPa 0,0 l/m 0 min 0 min 0 W/m 6,3 km/h (2 Bft) 96,15 %
11.11.2016 21:34 1,9 C 2,2 C 0,6 C 87 % 0 lf 1024,2 hPa 0,0 l/m 0 min 0 min 0 W/m 6,3 km/h (2 Bft) 95,74 %
11.11.2016 21:36 1,9 C 2,2 C 0,6 C 87 % 0 lf 1024,1 hPa 0,0 l/m 0 min 0 min 0 W/m 6,3 km/h (2 Bft) 95,74 %
11.11.2016 21:38 1,9 C 1,7 C 0,6 C 87 % 0 lf 1024,2 hPa 0,0 l/m 0 min 0 min 0 W/m 6,3 km/h (2 Bft) 95,74 %
11.11.2016 21:40 1,9 C 1,7 C 0,6 C 87 % 0 lf 1024,2 hPa 0,0 l/m 0 min 0 min 0 W/m 8,4 km/h (2 Bft) 93,62 %
11.11.2016 21:42 1,9 C 1,7 C 0,6 C 87 % 0 lf 1024,2 hPa 0,0 l/m 0 min 0 min 0 W/m 12,6 km/h (3 Bft) 91,30 %
11.11.2016 21:44 1,9 C 1,7 C 0,6 C 87 % 0 lf 1024,2 hPa 0,0 l/m 0 min 0 min 0 W/m 16,7 km/h (3 Bft) 89,36 %
11.11.2016 21:46 1,8 C 1,7 C 0,6 C 87 % 0 lf 1024,2 hPa 0,0 l/m 0 min 0 min 0 W/m 16,7 km/h (3 Bft) 93,62 %
11.11.2016 21:48 1,8 C 1,7 C 0,6 C 87 % 0 lf 1024,2 hPa 0,0 l/m 0 min 0 min 0 W/m 14,6 km/h (3 Bft) 95,74 %
11.11.2016 21:50 1,8 C 1,7 C 0,0 C 87 % 0 lf 1024,2 hPa 0,0 l/m 0 min 0 min 0 W/m 14,6 km/h (3 Bft) 95,74 %
11.11.2016 21:52 1,8 C 1,7 C 0,0 C 87 % 0 lf 1024,2 hPa 0,0 l/m 0 min 0 min 0 W/m 12,6 km/h (3 Bft) 93,62 %
11.11.2016 21:54 1,8 C 1,7 C 0,0 C 87 % 0 lf 1024,2 hPa 0,0 l/m 0 min 0 min 0 W/m 12,6 km/h (3 Bft) 91,30 %
11.11.2016 21:56 1,7 C 1,7 C 0,0 C 87 % 0 lf 1024,2 hPa 0,0 l/m 0 min 0 min 0 W/m 12,6 km/h (3 Bft) 93,62 %
11.11.2016 21:58 1,7 C 1,7 C 0,0 C 87 % 0 lf 1024,3 hPa 0,0 l/m 0 min 0 min 0 W/m 14,6 km/h (3 Bft) 95,74 %
11.11.2016 22:00 1,7 C 1,7 C 0,0 C 87 % 0 lf 1024,3 hPa 0,0 l/m 0 min 0 min 0 W/m 12,6 km/h (3 Bft) 92,68 %
11.11.2016 22:02 1,7 C 1,7 C 0,0 C 87 % 0 lf 1024,3 hPa 0,0 l/m 0 min 0 min 0 W/m 8,4 km/h (2 Bft) 92,45 %
11.11.2016 22:04 1,7 C 1,7 C 0,0 C 87 % 0 lf 1024,3 hPa 0,0 l/m 0 min 0 min 0 W/m 8,4 km/h (2 Bft) 95,74 %
11.11.2016 22:06 1,7 C 1,7 C 0,6 C 87 % 0 lf 1024,3 hPa 0,0 l/m 0 min 0 min 0 W/m 6,3 km/h (2 Bft) 95,65 %
11.11.2016 22:08 1,6 C 1,7 C 0,6 C 87 % 0 lf 1024,3 hPa 0,0 l/m 0 min 0 min 0 W/m 8,4 km/h (2 Bft) 95,74 %
11.11.2016 22:10 1,6 C 1,7 C 0,6 C 87 % 0 lf 1024,3 hPa 0,0 l/m 0 min 0 min 0 W/m 6,3 km/h (2 Bft) 95,74 %
11.11.2016 22:12 1,6 C 1,7 C 0,6 C 87 % 0 lf 1024,3 hPa 0,0 l/m 0 min 0 min 0 W/m 10,5 km/h (2 Bft) 91,49 %
11.11.2016 22:14 1,6 C 1,7 C 0,6 C 87 % 0 lf 1024,3 hPa 0,0 l/m 0 min 0 min 0 W/m 10,5 km/h (2 Bft) 93,62 %
11.11.2016 22:16 1,6 C 1,7 C 0,6 C 87 % 0 lf 1024,3 hPa 0,0 l/m 0 min 0 min 0 W/m 6,3 km/h (2 Bft) 95,74 %
11.11.2016 22:18 1,6 C 1,7 C 0,6 C 87 % 0 lf 1024,3 hPa 0,0 l/m 0 min 0 min 0 W/m 6,3 km/h (2 Bft) 93,48 %
11.11.2016 22:20 1,6 C 1,7 C 0,6 C 87 % 0 lf 1024,3 hPa 0,0 l/m 0 min 0 min 0 W/m 16,7 km/h (3 Bft) 91,49 %
11.11.2016 22:22 1,6 C 1,7 C 0,6 C 87 % 0 lf 1024,4 hPa 0,0 l/m 0 min 0 min 0 W/m 6,3 km/h (2 Bft) 97,87 %
11.11.2016 22:24 1,6 C 1,7 C 0,6 C 87 % 0 lf 1024,4 hPa 0,0 l/m 0 min 0 min 0 W/m 10,5 km/h (2 Bft) 97,87 %
11.11.2016 22:26 1,6 C 1,7 C 0,6 C 87 % 0 lf 1024,4 hPa 0,0 l/m 0 min 0 min 0 W/m 12,6 km/h (3 Bft) 95,74 %
11.11.2016 22:28 1,6 C 2,2 C 0,6 C 87 % 0 lf 1024,4 hPa 0,0 l/m 0 min 0 min 0 W/m 10,5 km/h (2 Bft) 95,74 %
11.11.2016 22:30 1,6 C 2,2 C 0,6 C 87 % 0 lf 1024,4 hPa 0,0 l/m 0 min 0 min 0 W/m 10,5 km/h (2 Bft) 95,65 %
11.11.2016 22:32 1,6 C 2,2 C 0,6 C 87 % 0 lf 1024,4 hPa 0,0 l/m 0 min 0 min 0 W/m 10,5 km/h (2 Bft) 97,87 %
11.11.2016 22:34 1,6 C 2,2 C 0,6 C 87 % 0 lf 1024,5 hPa 0,0 l/m 0 min 0 min 0 W/m 8,4 km/h (2 Bft) 100,00 %
11.11.2016 22:36 1,6 C 2,2 C 0,6 C 87 % 0 lf 1024,5 hPa 0,0 l/m 0 min 0 min 0 W/m 4,2 km/h (1 Bft) 91,49 %
11.11.2016 22:38 1,6 C 2,2 C 0,6 C 87 % 0 lf 1024,6 hPa 0,0 l/m 0 min 0 min 0 W/m 4,2 km/h (1 Bft) 91,49 %
11.11.2016 22:40 1,6 C 1,7 C 0,6 C 87 % 0 lf 1024,6 hPa 0,0 l/m 0 min 0 min 0 W/m 4,2 km/h (1 Bft) 95,74 %
11.11.2016 22:42 1,6 C 1,7 C 0,6 C 87 % 0 lf 1024,7 hPa 0,0 l/m 0 min 0 min 0 W/m 4,2 km/h (1 Bft) 100,00 %
11.11.2016 22:44 1,6 C 1,7 C 0,6 C 87 % 0 lf 1024,7 hPa 0,0 l/m 0 min 0 min 0 W/m 4,2 km/h (1 Bft) 97,87 %
11.11.2016 22:46 1,6 C 1,7 C 0,6 C 87 % 0 lf 1024,7 hPa 0,0 l/m 0 min 0 min 0 W/m 2,1 km/h (1 Bft) 95,74 %
11.11.2016 22:48 1,6 C 1,7 C 0,6 C 87 % 0 lf 1024,7 hPa 0,0 l/m 0 min 0 min 0 W/m 2,1 km/h (1 Bft) 95,74 %
11.11.2016 22:50 1,6 C 1,7 C 0,6 C 87 % 0 lf 1024,6 hPa 0,0 l/m 0 min 0 min 0 W/m 2,1 km/h (1 Bft) 100,00 %
11.11.2016 22:52 1,6 C 1,7 C 0,6 C 87 % 0 lf 1024,6 hPa 0,0 l/m 0 min 0 min 0 W/m 4,2 km/h (1 Bft) 100,00 %
11.11.2016 22:54 1,6 C 1,7 C 0,6 C 87 % 0 lf 1024,6 hPa 0,0 l/m 0 min 0 min 0 W/m 4,2 km/h (1 Bft) 95,65 %
11.11.2016 22:56 1,6 C 1,7 C 0,6 C 87 % 0 lf 1024,7 hPa 0,0 l/m 0 min 0 min 0 W/m 2,1 km/h (1 Bft) 100,00 %
11.11.2016 22:58 1,6 C 1,7 C 0,6 C 87 % 0 lf 1024,7 hPa 0,0 l/m 0 min 0 min 0 W/m 8,4 km/h (2 Bft) 97,87 %
11.11.2016 23:00 1,6 C 1,7 C 0,6 C 87 % 0 lf 1024,7 hPa 0,0 l/m 0 min 0 min 0 W/m 6,3 km/h (2 Bft) 97,87 %
11.11.2016 23:02 1,6 C 2,2 C 0,6 C 87 % 0 lf 1024,7 hPa 0,0 l/m 0 min 0 min 0 W/m 6,3 km/h (2 Bft) 95,74 %
11.11.2016 23:04 1,6 C 2,2 C 0,6 C 88 % 0 lf 1024,7 hPa 0,0 l/m 0 min 0 min 0 W/m 6,3 km/h (2 Bft) 97,83 %
11.11.2016 23:06 1,6 C 2,2 C 1,1 C 87 % 0 lf 1024,7 hPa 0,0 l/m 0 min 0 min 0 W/m 6,3 km/h (2 Bft) 95,74 %
11.11.2016 23:08 1,7 C 2,2 C 1,1 C 87 % 0 lf 1024,7 hPa 0,0 l/m 0 min 0 min 0 W/m 10,5 km/h (2 Bft) 95,74 %
11.11.2016 23:10 1,6 C 2,2 C 1,1 C 87 % 0 lf 1024,7 hPa 0,0 l/m 0 min 0 min 0 W/m 6,3 km/h (2 Bft) 97,87 %
11.11.2016 23:12 1,6 C 2,2 C 1,1 C 87 % 0 lf 1024,7 hPa 0,0 l/m 0 min 0 min 0 W/m 6,3 km/h (2 Bft) 89,36 %
11.11.2016 23:14 1,7 C 2,2 C 1,1 C 87 % 0 lf 1024,7 hPa 0,0 l/m 0 min 0 min 0 W/m 10,5 km/h (2 Bft) 97,87 %
11.11.2016 23:16 1,7 C 2,2 C 1,1 C 87 % 0 lf 1024,6 hPa 0,0 l/m 0 min 0 min 0 W/m 6,3 km/h (2 Bft) 95,65 %
11.11.2016 23:18 1,7 C 2,2 C 1,1 C 87 % 0 lf 1024,6 hPa 0,0 l/m 0 min 0 min 0 W/m 4,2 km/h (1 Bft) 97,87 %
11.11.2016 23:20 1,7 C 2,2 C 1,1 C 87 % 0 lf 1024,6 hPa 0,0 l/m 0 min 0 min 0 W/m 2,1 km/h (1 Bft) 95,74 %
11.11.2016 23:22 1,7 C 2,2 C 0,6 C 87 % 0 lf 1024,6 hPa 0,0 l/m 0 min 0 min 0 W/m 4,2 km/h (1 Bft) 95,74 %
11.11.2016 23:24 1,7 C 2,2 C 0,6 C 87 % 0 lf 1024,6 hPa 0,0 l/m 0 min 0 min 0 W/m 6,3 km/h (2 Bft) 91,49 %
11.11.2016 23:26 1,7 C 2,2 C 0,6 C 87 % 0 lf 1024,6 hPa 0,0 l/m 0 min 0 min 0 W/m 2,1 km/h (1 Bft) 95,74 %
11.11.2016 23:28 1,7 C 2,2 C 0,6 C 87 % 0 lf 1024,6 hPa 0,0 l/m 0 min 0 min 0 W/m 6,3 km/h (2 Bft) 93,48 %
11.11.2016 23:30 1,7 C 2,2 C 0,6 C 87 % 0 lf 1024,6 hPa 0,0 l/m 0 min 0 min 0 W/m 10,5 km/h (2 Bft) 95,74 %
11.11.2016 23:32 1,7 C 2,2 C 0,6 C 87 % 0 lf 1024,6 hPa 0,0 l/m 0 min 0 min 0 W/m 2,1 km/h (1 Bft) 95,74 %
11.11.2016 23:34 1,7 C 2,2 C 0,6 C 87 % 0 lf 1024,6 hPa 0,0 l/m 0 min 0 min 0 W/m 4,2 km/h (1 Bft) 97,87 %
11.11.2016 23:36 1,7 C 2,2 C 0,6 C 87 % 0 lf 1024,6 hPa 0,0 l/m 0 min 0 min 0 W/m 2,1 km/h (1 Bft) 95,74 %
11.11.2016 23:38 1,7 C 2,2 C 0,6 C 87 % 0 lf 1024,6 hPa 0,0 l/m 0 min 0 min 0 W/m 2,1 km/h (1 Bft) 97,87 %
11.11.2016 23:40 1,7 C 2,2 C 0,6 C 87 % 0 lf 1024,6 hPa 0,0 l/m 0 min 0 min 0 W/m 2,1 km/h (1 Bft) 97,83 %
11.11.2016 23:42 1,7 C 1,7 C 0,6 C 87 % 0 lf 1024,6 hPa 0,0 l/m 0 min 0 min 0 W/m 2,1 km/h (1 Bft) 97,87 %
11.11.2016 23:44 1,7 C 1,7 C 0,6 C 87 % 0 lf 1024,6 hPa 0,0 l/m 0 min 0 min 0 W/m 2,1 km/h (1 Bft) 95,74 %
11.11.2016 23:46 1,7 C 1,7 C 0,6 C 87 % 0 lf 1024,5 hPa 0,0 l/m 0 min 0 min 0 W/m 2,1 km/h (1 Bft) 97,87 %
11.11.2016 23:48 1,7 C 1,7 C 0,6 C 87 % 0 lf 1024,6 hPa 0,0 l/m 0 min 0 min 0 W/m 4,2 km/h (1 Bft) 93,62 %
11.11.2016 23:50 1,7 C 1,7 C 0,6 C 87 % 0 lf 1024,6 hPa 0,0 l/m 0 min 0 min 0 W/m 2,1 km/h (1 Bft) 95,74 %
11.11.2016 23:52 1,7 C 1,7 C 0,6 C 87 % 0 lf 1024,6 hPa 0,0 l/m 0 min 0 min 0 W/m 0,0 km/h (0 Bft) 95,65 %
11.11.2016 23:54 1,8 C 1,7 C 0,6 C 87 % 0 lf 1024,4 hPa 0,0 l/m 0 min 0 min 0 W/m 0,0 km/h (0 Bft) 97,87 %
11.11.2016 23:56 1,7 C 1,7 C 0,6 C 87 % 0 lf 1024,4 hPa 0,0 l/m 0 min 0 min 0 W/m 0,0 km/h (0 Bft) 97,87 %
11.11.2016 23:58 1,7 C 1,7 C 0,6 C 87 % 0 lf 1024,3 hPa 0,0 l/m 0 min 0 min 0 W/m 0,0 km/h (0 Bft) 97,87 %
_ Min-Zeit 22:06 20:38 21:50 16:28 11:08 00:00 - - - - 00:36 00:02
Minimum _ 1,6 C 1,7 C 0,0 C 87 % 0 lf 1004,7 hPa - - - - 0,0 km/h (0 Bft) 14,29 %
_ Max-Zeit 01:02 00:34 00:52 01:46 00:00 22:42 04:18 00:00 01:36 14:48 09:12 01:46
Maximum _ 5,4 C 5,6 C 4,4 C 98 % 15 lf 1024,7 hPa 0,2 l/m 0 min 2 min 85 W/m 33,5 km/h
NO (5 Bft)
100,00 %
Durchschnitt _ 3,6 C 3,6 C 2,5 C 93 % 7 lf 1016,1 hPa #1,2 l/m #0 min. #4:08 h 33 W/m 13,3 km/h (3 Bft) 95,79 %
© 2016 W. Hausmann